Time,TemperatureF,DewpointF,PressureIn,WindDirection,WindDirectionDegrees,WindSpeedMPH,WindSpeedGustMPH,Humidity,HourlyPrecipIn,Conditions,Clouds,dailyrainin,SoftwareType,DateUTC
2013-02-03 00:01:00,19.7,15.4,29.98,NNW,344,0.0,0.0,83,0.00,,---,0.00,VWS V14.01,2013-02-03 06:01:00,
2013-02-03 00:02:00,19.7,15.4,29.98,NNW,344,0.0,0.0,83,0.00,,---,0.00,VWS V14.01,2013-02-03 06:02:00,
2013-02-03 00:06:00,19.7,15.4,29.98,NNW,344,0.0,0.0,83,0.00,,---,0.00,VWS V14.01,2013-02-03 06:06:00,
2013-02-03 00:07:00,19.7,15.4,29.98,NNW,344,0.0,0.0,83,0.00,,---,0.00,VWS V14.01,2013-02-03 06:07:00,
2013-02-03 00:11:00,19.8,15.5,29.98,NNW,344,0.0,0.0,83,0.00,,---,0.00,VWS V14.01,2013-02-03 06:11:00,
2013-02-03 00:12:00,19.7,15.4,29.98,NNW,344,0.0,0.0,83,0.00,,---,0.00,VWS V14.01,2013-02-03 06:12:00,
2013-02-03 00:16:00,19.8,15.8,29.98,NNW,344,0.0,0.0,84,0.00,,---,0.00,VWS V14.01,2013-02-03 06:16:00,
2013-02-03 00:17:00,19.8,15.8,29.98,NNW,344,0.0,0.0,84,0.00,,---,0.00,VWS V14.01,2013-02-03 06:17:00,
2013-02-03 00:21:00,19.8,15.8,29.98,NNW,344,0.0,0.0,84,0.00,,---,0.00,VWS V14.01,2013-02-03 06:21:00,
2013-02-03 00:22:00,19.8,15.8,29.98,NNW,344,0.0,0.0,84,0.00,,---,0.00,VWS V14.01,2013-02-03 06:22:00,
2013-02-03 00:26:00,19.8,15.8,29.98,NNW,344,0.0,0.0,84,0.00,,---,0.00,VWS V14.01,2013-02-03 06:26:00,
2013-02-03 00:27:00,19.8,15.8,29.97,NNW,344,0.0,0.0,84,0.00,,---,0.00,VWS V14.01,2013-02-03 06:27:00,
2013-02-03 00:31:00,19.9,15.9,29.97,NNW,344,0.0,0.0,84,0.00,,---,0.00,VWS V14.01,2013-02-03 06:31:00,
2013-02-03 00:32:00,19.9,15.9,29.97,NNW,344,0.0,0.0,84,0.00,,---,0.00,VWS V14.01,2013-02-03 06:32:00,
2013-02-03 00:36:00,20.0,15.9,29.97,NNW,344,0.0,0.0,84,0.00,,---,0.00,VWS V14.01,2013-02-03 06:36:00,
2013-02-03 00:37:00,20.0,15.9,29.97,NNW,344,0.0,0.0,84,0.00,,---,0.00,VWS V14.01,2013-02-03 06:37:00,
2013-02-03 00:38:00,19.9,15.9,29.97,NNW,344,0.0,0.0,84,0.00,,---,0.00,VWS V14.01,2013-02-03 06:38:00,
2013-02-03 00:41:00,20.0,15.9,29.97,NNW,344,0.0,0.0,84,0.00,,---,0.00,VWS V14.01,2013-02-03 06:41:00,
2013-02-03 00:42:00,20.0,15.9,29.97,NNW,344,0.0,0.0,84,0.00,,---,0.00,VWS V14.01,2013-02-03 06:42:00,
2013-02-03 00:43:00,19.9,15.9,29.97,NNW,344,0.0,0.0,84,0.00,,---,0.00,VWS V14.01,2013-02-03 06:43:00,
2013-02-03 00:46:00,19.9,15.9,29.97,NNW,344,0.0,0.0,84,0.00,,---,0.00,VWS V14.01,2013-02-03 06:46:00,
2013-02-03 00:47:00,19.9,15.9,29.97,NNW,344,0.0,0.0,84,0.00,,---,0.00,VWS V14.01,2013-02-03 06:47:00,
2013-02-03 00:48:00,19.9,15.9,29.97,NNW,344,0.0,0.0,84,0.00,,---,0.00,VWS V14.01,2013-02-03 06:48:00,
2013-02-03 00:52:00,19.9,15.9,29.97,NNW,344,0.0,0.0,84,0.00,,---,0.00,VWS V14.01,2013-02-03 06:52:00,
2013-02-03 00:53:00,19.9,15.9,29.97,NNW,344,0.0,0.0,84,0.00,,---,0.00,VWS V14.01,2013-02-03 06:53:00,
2013-02-03 00:57:00,20.0,15.9,29.97,NNW,345,0.0,0.0,84,0.00,,---,0.00,VWS V14.01,2013-02-03 06:57:00,
2013-02-03 00:58:00,20.0,15.9,29.97,NNW,344,0.0,0.0,84,0.00,,---,0.00,VWS V14.01,2013-02-03 06:58:00,
2013-02-03 01:02:00,20.0,16.2,29.97,NNW,344,0.0,2.0,85,0.00,,---,0.00,VWS V14.01,2013-02-03 07:02:00,
2013-02-03 01:03:00,20.0,16.2,29.97,NNW,345,1.0,2.0,85,0.00,,---,0.00,VWS V14.01,2013-02-03 07:03:00,
2013-02-03 01:07:00,20.0,16.2,29.97,North,355,3.0,5.0,85,0.00,,---,0.00,VWS V14.01,2013-02-03 07:07:00,
2013-02-03 01:08:00,20.0,16.2,29.96,North,350,2.0,5.0,85,0.00,,---,0.00,VWS V14.01,2013-02-03 07:08:00,
2013-02-03 01:12:00,20.0,16.2,29.96,ESE,112,1.0,5.0,85,0.00,,---,0.00,VWS V14.01,2013-02-03 07:12:00,
2013-02-03 01:13:00,20.0,16.2,29.96,ESE,112,2.0,5.0,85,0.00,,---,0.00,VWS V14.01,2013-02-03 07:13:00,
2013-02-03 01:18:00,19.9,16.1,29.96,ESE,112,0.0,5.0,85,0.00,,---,0.00,VWS V14.01,2013-02-03 07:18:00,
2013-02-03 01:23:00,19.9,16.1,29.96,ESE,112,0.0,5.0,85,0.00,,---,0.00,VWS V14.01,2013-02-03 07:23:00,
2013-02-03 01:24:00,20.0,16.2,29.96,ESE,112,0.0,5.0,85,0.00,,---,0.00,VWS V14.01,2013-02-03 07:24:00,
2013-02-03 01:28:00,20.0,16.2,29.96,ESE,112,0.0,5.0,85,0.00,,---,0.00,VWS V14.01,2013-02-03 07:28:00,
2013-02-03 01:29:00,20.0,16.5,29.96,ESE,112,0.0,5.0,86,0.00,,---,0.00,VWS V14.01,2013-02-03 07:29:00,
2013-02-03 01:33:00,20.0,16.5,29.95,ESE,117,3.0,5.0,86,0.00,,---,0.00,VWS V14.01,2013-02-03 07:33:00,
2013-02-03 01:34:00,20.0,16.5,29.95,ESE,119,4.0,5.0,86,0.00,,---,0.00,VWS V14.01,2013-02-03 07:34:00,
2013-02-03 01:38:00,20.0,16.5,29.95,SE,136,4.0,5.0,86,0.00,,---,0.00,VWS V14.01,2013-02-03 07:38:00,
2013-02-03 01:39:00,20.0,16.5,29.95,SE,136,3.0,5.0,86,0.00,,---,0.00,VWS V14.01,2013-02-03 07:39:00,
2013-02-03 01:43:00,20.0,16.5,29.95,SE,138,3.0,5.0,86,0.00,,---,0.00,VWS V14.01,2013-02-03 07:43:00,
2013-02-03 01:44:00,20.0,16.5,29.95,SE,138,5.0,5.0,86,0.00,,---,0.00,VWS V14.01,2013-02-03 07:44:00,
2013-02-03 01:48:00,20.0,16.8,29.95,SE,139,2.0,5.0,87,0.00,,---,0.00,VWS V14.01,2013-02-03 07:48:00,
2013-02-03 01:49:00,20.0,16.8,29.95,SE,139,0.0,5.0,87,0.00,,---,0.00,VWS V14.01,2013-02-03 07:49:00,
2013-02-03 01:50:00,20.0,16.8,29.95,SE,139,1.0,5.0,87,0.00,,---,0.00,VWS V14.01,2013-02-03 07:50:00,
2013-02-03 01:53:00,20.1,16.9,29.95,SE,139,0.0,5.0,87,0.00,,---,0.00,VWS V14.01,2013-02-03 07:53:00,
2013-02-03 01:54:00,20.1,16.9,29.95,SE,139,0.0,5.0,87,0.00,,---,0.00,VWS V14.01,2013-02-03 07:54:00,
2013-02-03 01:55:00,20.1,16.9,29.95,SE,139,0.0,5.0,87,0.00,,---,0.00,VWS V14.01,2013-02-03 07:55:00,
2013-02-03 01:58:00,20.2,17.0,29.95,SSE,153,4.0,6.0,87,0.00,,---,0.00,VWS V14.01,2013-02-03 07:58:00,
2013-02-03 01:59:00,20.1,16.9,29.95,SSE,153,2.0,6.0,87,0.00,,---,0.00,VWS V14.01,2013-02-03 07:59:00,
2013-02-03 02:00:00,20.1,16.9,29.95,SSE,153,3.0,6.0,87,0.00,,---,0.00,VWS V14.01,2013-02-03 08:00:00,
2013-02-03 02:03:00,20.1,16.9,29.95,SSE,153,3.0,4.0,87,0.00,,---,0.00,VWS V14.01,2013-02-03 08:03:00,
2013-02-03 02:04:00,20.1,16.9,29.95,SSE,153,0.0,4.0,87,0.00,,---,0.00,VWS V14.01,2013-02-03 08:04:00,
2013-02-03 02:05:00,20.1,16.9,29.95,SSE,153,3.0,4.0,87,0.00,,---,0.00,VWS V14.01,2013-02-03 08:05:00,
2013-02-03 02:08:00,20.2,17.0,29.95,SSE,153,0.0,4.0,87,0.00,,---,0.00,VWS V14.01,2013-02-03 08:08:00,
2013-02-03 02:09:00,20.2,17.2,29.95,SSE,153,1.0,4.0,88,0.00,,---,0.00,VWS V14.01,2013-02-03 08:09:00,
2013-02-03 02:10:00,20.2,17.0,29.95,SSE,153,1.0,4.0,87,0.00,,---,0.00,VWS V14.01,2013-02-03 08:10:00,
2013-02-03 02:14:00,20.2,17.2,29.95,SSE,153,1.0,4.0,88,0.00,,---,0.00,VWS V14.01,2013-02-03 08:14:00,
2013-02-03 02:15:00,20.2,17.2,29.95,SSE,153,1.0,4.0,88,0.00,,---,0.00,VWS V14.01,2013-02-03 08:15:00,
2013-02-03 02:19:00,20.2,17.2,29.95,SSE,153,0.0,4.0,88,0.00,,---,0.00,VWS V14.01,2013-02-03 08:19:00,
2013-02-03 02:20:00,20.2,17.2,29.94,SSE,153,0.0,4.0,88,0.00,,---,0.00,VWS V14.01,2013-02-03 08:20:00,
2013-02-03 02:24:00,20.2,17.2,29.95,SSE,153,0.0,4.0,88,0.00,,---,0.00,VWS V14.01,2013-02-03 08:24:00,
2013-02-03 02:25:00,20.2,17.2,29.95,SSE,153,0.0,4.0,88,0.00,,---,0.00,VWS V14.01,2013-02-03 08:25:00,
2013-02-03 02:29:00,20.3,17.3,29.95,SSE,153,0.0,4.0,88,0.00,,---,0.00,VWS V14.01,2013-02-03 08:29:00,
2013-02-03 02:30:00,20.3,17.3,29.95,SSE,153,0.0,0.0,88,0.00,,---,0.00,VWS V14.01,2013-02-03 08:30:00,
2013-02-03 02:34:00,20.4,17.4,29.94,SSE,153,0.0,0.0,88,0.00,,---,0.00,VWS V14.01,2013-02-03 08:34:00,
2013-02-03 02:35:00,20.4,17.4,29.94,SSE,153,0.0,0.0,88,0.00,,---,0.00,VWS V14.01,2013-02-03 08:35:00,
2013-02-03 02:39:00,20.4,17.4,29.94,SSE,153,0.0,0.0,88,0.00,,---,0.00,VWS V14.01,2013-02-03 08:39:00,
2013-02-03 02:40:00,20.5,17.5,29.94,SSE,153,0.0,0.0,88,0.00,,---,0.00,VWS V14.01,2013-02-03 08:40:00,
2013-02-03 02:44:00,20.6,17.6,29.94,SSE,153,0.0,0.0,88,0.00,,---,0.00,VWS V14.01,2013-02-03 08:44:00,
2013-02-03 02:45:00,20.6,17.6,29.94,SSE,153,0.0,0.0,88,0.00,,---,0.00,VWS V14.01,2013-02-03 08:45:00,
2013-02-03 02:46:00,20.6,17.6,29.94,SSE,153,0.0,0.0,88,0.00,,---,0.00,VWS V14.01,2013-02-03 08:46:00,
2013-02-03 02:49:00,20.7,17.7,29.94,SSE,153,0.0,0.0,88,0.00,,---,0.00,VWS V14.01,2013-02-03 08:49:00,
2013-02-03 02:50:00,20.7,17.7,29.94,SSE,153,0.0,0.0,88,0.00,,---,0.00,VWS V14.01,2013-02-03 08:50:00,
2013-02-03 02:51:00,20.7,17.7,29.94,SSE,153,0.0,0.0,88,0.00,,---,0.00,VWS V14.01,2013-02-03 08:51:00,
2013-02-03 02:54:00,20.8,17.8,29.95,SSE,153,0.0,0.0,88,0.00,,---,0.00,VWS V14.01,2013-02-03 08:54:00,
2013-02-03 02:55:00,20.8,17.8,29.95,SSE,153,0.0,0.0,88,0.00,,---,0.00,VWS V14.01,2013-02-03 08:55:00,
2013-02-03 02:56:00,20.8,17.8,29.94,SSE,153,0.0,0.0,88,0.00,,---,0.00,VWS V14.01,2013-02-03 08:56:00,
2013-02-03 03:00:00,20.8,17.8,29.94,SSE,153,1.0,5.0,88,0.00,,---,0.00,VWS V14.01,2013-02-03 09:00:00,
2013-02-03 03:01:00,20.9,17.9,29.94,SSE,153,0.0,2.0,88,0.00,,---,0.00,VWS V14.01,2013-02-03 09:01:00,
2013-02-03 03:05:00,20.9,17.9,29.94,SSE,153,0.0,2.0,88,0.00,,---,0.00,VWS V14.01,2013-02-03 09:05:00,
2013-02-03 03:06:00,20.9,17.9,29.94,SSE,153,0.0,4.0,88,0.00,,---,0.00,VWS V14.01,2013-02-03 09:06:00,
2013-02-03 03:10:00,21.0,18.0,29.94,SSE,153,0.0,4.0,88,0.00,,---,0.00,VWS V14.01,2013-02-03 09:10:00,
2013-02-03 03:11:00,21.0,18.0,29.94,SSE,153,1.0,4.0,88,0.00,,---,0.00,VWS V14.01,2013-02-03 09:11:00,
2013-02-03 03:15:00,21.0,18.0,29.94,SSE,153,0.0,4.0,88,0.00,,---,0.00,VWS V14.01,2013-02-03 09:15:00,
2013-02-03 03:16:00,21.0,18.0,29.94,SSE,153,0.0,4.0,88,0.00,,---,0.00,VWS V14.01,2013-02-03 09:16:00,
2013-02-03 03:21:00,21.1,18.1,29.94,SSE,153,2.0,4.0,88,0.00,,---,0.00,VWS V14.01,2013-02-03 09:21:00,
2013-02-03 03:26:00,21.2,18.2,29.93,SSE,153,2.0,4.0,88,0.00,,---,0.00,VWS V14.01,2013-02-03 09:26:00,
2013-02-03 03:31:00,21.2,18.2,29.93,SSE,153,3.0,3.0,88,0.00,,---,0.00,VWS V14.01,2013-02-03 09:31:00,
2013-02-03 03:36:00,21.3,18.3,29.93,SSE,153,1.0,4.0,88,0.00,,---,0.00,VWS V14.01,2013-02-03 09:36:00,
2013-02-03 03:41:00,21.4,18.7,29.93,SSE,168,0.0,7.0,89,0.00,,---,0.00,VWS V14.01,2013-02-03 09:41:00,
2013-02-03 03:42:00,21.4,18.7,29.93,SSE,168,1.0,7.0,89,0.00,,---,0.00,VWS V14.01,2013-02-03 09:42:00,
2013-02-03 03:46:00,21.5,18.8,29.93,SSE,168,1.0,7.0,89,0.00,,---,0.00,VWS V14.01,2013-02-03 09:46:00,
2013-02-03 03:47:00,21.5,18.8,29.93,SSE,168,0.0,7.0,89,0.00,,---,0.00,VWS V14.01,2013-02-03 09:47:00,
2013-02-03 03:51:00,21.6,18.9,29.93,SSE,168,0.0,7.0,89,0.00,,---,0.00,VWS V14.01,2013-02-03 09:51:00,
2013-02-03 03:52:00,21.6,18.9,29.93,SSE,168,0.0,7.0,89,0.00,,---,0.00,VWS V14.01,2013-02-03 09:52:00,
2013-02-03 03:56:00,21.7,19.0,29.93,SSE,168,0.0,7.0,89,0.00,,---,0.00,VWS V14.01,2013-02-03 09:56:00,
2013-02-03 03:57:00,21.7,19.0,29.93,SSE,168,0.0,7.0,89,0.00,,---,0.00,VWS V14.01,2013-02-03 09:57:00,
2013-02-03 04:01:00,21.8,19.1,29.93,South,169,6.0,6.0,89,0.00,,---,0.00,VWS V14.01,2013-02-03 10:01:00,
2013-02-03 04:02:00,21.8,19.1,29.93,South,169,6.0,6.0,89,0.00,,---,0.00,VWS V14.01,2013-02-03 10:02:00,
2013-02-03 04:06:00,21.9,19.2,29.93,South,169,3.0,6.0,89,0.00,,---,0.00,VWS V14.01,2013-02-03 10:06:00,
2013-02-03 04:07:00,21.9,19.2,29.93,South,169,1.0,6.0,89,0.00,,---,0.00,VWS V14.01,2013-02-03 10:07:00,
2013-02-03 04:11:00,22.1,19.4,29.93,South,169,1.0,6.0,89,0.00,,---,0.00,VWS V14.01,2013-02-03 10:11:00,
2013-02-03 04:12:00,22.1,19.4,29.93,South,169,3.0,6.0,89,0.00,,---,0.00,VWS V14.01,2013-02-03 10:12:00,
2013-02-03 04:16:00,22.2,19.5,29.93,SSE,167,0.0,6.0,89,0.00,,---,0.00,VWS V14.01,2013-02-03 10:16:00,
2013-02-03 04:17:00,22.2,19.5,29.93,SSE,167,0.0,6.0,89,0.00,,---,0.00,VWS V14.01,2013-02-03 10:17:00,
2013-02-03 04:21:00,22.3,19.6,29.93,South,169,3.0,6.0,89,0.00,,---,0.00,VWS V14.01,2013-02-03 10:21:00,
2013-02-03 04:22:00,22.3,19.6,29.93,South,169,2.0,6.0,89,0.00,,---,0.00,VWS V14.01,2013-02-03 10:22:00,
2013-02-03 04:23:00,22.3,19.6,29.93,South,169,1.0,6.0,89,0.00,,---,0.00,VWS V14.01,2013-02-03 10:23:00,
2013-02-03 04:26:00,22.5,19.8,29.93,South,169,2.0,6.0,89,0.00,,---,0.00,VWS V14.01,2013-02-03 10:26:00,
2013-02-03 04:27:00,22.5,19.8,29.93,South,169,0.0,6.0,89,0.00,,---,0.00,VWS V14.01,2013-02-03 10:27:00,
2013-02-03 04:28:00,22.5,19.8,29.93,South,169,3.0,6.0,89,0.00,,---,0.00,VWS V14.01,2013-02-03 10:28:00,
2013-02-03 04:32:00,22.9,20.1,29.93,SSW,208,3.0,7.0,89,0.00,,---,0.00,VWS V14.01,2013-02-03 10:32:00,
2013-02-03 04:33:00,22.9,20.1,29.93,SSW,207,3.0,7.0,89,0.00,,---,0.00,VWS V14.01,2013-02-03 10:33:00,
2013-02-03 04:37:00,23.1,20.4,29.93,SSW,212,6.0,7.0,89,0.00,,---,0.00,VWS V14.01,2013-02-03 10:37:00,
2013-02-03 04:38:00,23.1,20.4,29.93,SSW,213,1.0,7.0,89,0.00,,---,0.00,VWS V14.01,2013-02-03 10:38:00,
2013-02-03 04:42:00,23.1,20.4,29.93,SSW,213,3.0,7.0,89,0.00,,---,0.00,VWS V14.01,2013-02-03 10:42:00,
2013-02-03 04:43:00,23.1,20.4,29.94,SSW,213,3.0,7.0,89,0.00,,---,0.00,VWS V14.01,2013-02-03 10:43:00,
2013-02-03 04:47:00,23.1,20.4,29.93,SW,214,3.0,7.0,89,0.00,,---,0.00,VWS V14.01,2013-02-03 10:47:00,
2013-02-03 04:48:00,23.1,20.4,29.94,SW,214,0.0,7.0,89,0.00,,---,0.00,VWS V14.01,2013-02-03 10:48:00,
2013-02-03 04:52:00,23.2,20.5,29.94,SW,215,2.0,7.0,89,0.00,,---,0.00,VWS V14.01,2013-02-03 10:52:00,
2013-02-03 04:53:00,23.2,20.5,29.94,SW,215,3.0,7.0,89,0.00,,---,0.00,VWS V14.01,2013-02-03 10:53:00,
2013-02-03 04:54:00,23.2,20.5,29.93,SW,215,3.0,7.0,89,0.00,,---,0.00,VWS V14.01,2013-02-03 10:54:00,
2013-02-03 04:57:00,23.3,20.5,29.93,SW,215,1.0,7.0,89,0.00,,---,0.00,VWS V14.01,2013-02-03 10:57:00,
2013-02-03 04:58:00,23.3,20.5,29.93,SW,215,3.0,7.0,89,0.00,,---,0.00,VWS V14.01,2013-02-03 10:58:00,
2013-02-03 04:59:00,23.4,20.6,29.93,SW,215,4.0,7.0,89,0.00,,---,0.00,VWS V14.01,2013-02-03 10:59:00,
2013-02-03 05:03:00,23.5,20.7,29.93,SW,219,3.0,6.0,89,0.00,,---,0.00,VWS V14.01,2013-02-03 11:03:00,
2013-02-03 05:04:00,23.6,20.8,29.93,SW,219,4.0,6.0,89,0.00,,---,0.00,VWS V14.01,2013-02-03 11:04:00,
2013-02-03 05:08:00,23.7,20.9,29.93,SW,219,4.0,6.0,89,0.00,,---,0.00,VWS V14.01,2013-02-03 11:08:00,
2013-02-03 05:09:00,23.7,20.9,29.93,SW,219,5.0,6.0,89,0.00,,---,0.00,VWS V14.01,2013-02-03 11:09:00,
2013-02-03 05:13:00,23.8,21.0,29.93,SW,220,5.0,6.0,89,0.00,,---,0.00,VWS V14.01,2013-02-03 11:13:00,
2013-02-03 05:14:00,23.8,21.0,29.93,SW,236,6.0,7.0,89,0.00,,---,0.00,VWS V14.01,2013-02-03 11:14:00,
2013-02-03 05:18:00,24.1,21.3,29.93,WNW,283,6.0,10.0,89,0.00,,---,0.00,VWS V14.01,2013-02-03 11:18:00,
2013-02-03 05:19:00,24.1,21.3,29.93,West,277,5.0,10.0,89,0.00,,---,0.00,VWS V14.01,2013-02-03 11:19:00,
2013-02-03 05:23:00,24.4,21.6,29.93,West,276,4.0,10.0,89,0.00,,---,0.00,VWS V14.01,2013-02-03 11:23:00,
2013-02-03 05:24:00,24.4,21.6,29.93,West,276,7.0,10.0,89,0.00,,---,0.00,VWS V14.01,2013-02-03 11:24:00,
2013-02-03 05:28:00,24.6,21.8,29.93,West,279,6.0,10.0,89,0.00,,---,0.00,VWS V14.01,2013-02-03 11:28:00,
2013-02-03 05:29:00,24.6,21.8,29.93,West,279,5.0,10.0,89,0.00,,---,0.00,VWS V14.01,2013-02-03 11:29:00,
2013-02-03 05:33:00,24.8,21.8,29.93,WNW,284,10.0,10.0,88,0.00,,---,0.00,VWS V14.01,2013-02-03 11:33:00,
2013-02-03 05:34:00,24.9,21.9,29.93,WNW,292,11.0,11.0,88,0.00,,---,0.00,VWS V14.01,2013-02-03 11:34:00,
2013-02-03 05:39:00,25.1,22.0,29.93,WNW,292,2.0,11.0,88,0.00,,---,0.00,VWS V14.01,2013-02-03 11:39:00,
2013-02-03 05:44:00,25.3,22.2,29.93,NW,305,6.0,11.0,88,0.00,,---,0.00,VWS V14.01,2013-02-03 11:44:00,
2013-02-03 05:49:00,25.4,22.4,29.94,WNW,292,5.0,11.0,88,0.00,,---,0.00,VWS V14.01,2013-02-03 11:49:00,
2013-02-03 05:50:00,25.4,22.4,29.94,WNW,292,4.0,11.0,88,0.00,,---,0.00,VWS V14.01,2013-02-03 11:50:00,
2013-02-03 05:54:00,25.5,22.5,29.94,WNW,296,4.0,11.0,88,0.00,,---,0.00,VWS V14.01,2013-02-03 11:54:00,
2013-02-03 05:55:00,25.5,22.5,29.94,WNW,297,6.0,11.0,88,0.00,,---,0.00,VWS V14.01,2013-02-03 11:55:00,
2013-02-03 05:59:00,25.6,22.5,29.94,WNW,296,4.0,11.0,88,0.00,,---,0.00,VWS V14.01,2013-02-03 11:59:00,
2013-02-03 06:00:00,25.6,22.5,29.94,WNW,298,4.0,11.0,88,0.00,,---,0.00,VWS V14.01,2013-02-03 12:00:00,
2013-02-03 06:05:00,25.6,22.5,29.94,WNW,297,4.0,6.0,88,0.00,,---,0.00,VWS V14.01,2013-02-03 12:05:00,
2013-02-03 06:10:00,25.4,22.1,29.94,WNW,288,3.0,9.0,87,0.00,,---,0.00,VWS V14.01,2013-02-03 12:10:00,
2013-02-03 06:15:00,25.4,22.1,29.94,WNW,284,2.0,10.0,87,0.00,,---,0.00,VWS V14.01,2013-02-03 12:15:00,
2013-02-03 06:20:00,25.4,22.1,29.95,WNW,288,6.0,10.0,87,0.00,,---,0.00,VWS V14.01,2013-02-03 12:20:00,
2013-02-03 06:25:00,25.7,22.6,29.95,NW,309,4.0,11.0,88,0.00,,---,0.00,VWS V14.01,2013-02-03 12:25:00,
2013-02-03 06:30:00,26.2,22.9,29.95,WNW,288,9.0,18.0,87,0.00,,---,0.00,VWS V14.01,2013-02-03 12:30:00,
2013-02-03 06:31:00,26.2,22.9,29.95,NW,306,5.0,7.0,87,0.00,,---,0.00,VWS V14.01,2013-02-03 12:31:00,
2013-02-03 06:35:00,26.5,23.2,29.95,NNW,342,4.0,18.0,87,0.00,,---,0.00,VWS V14.01,2013-02-03 12:35:00,
2013-02-03 06:36:00,26.5,22.9,29.96,NW,317,6.0,18.0,86,0.00,,---,0.00,VWS V14.01,2013-02-03 12:36:00,
2013-02-03 06:40:00,26.6,22.7,29.95,NW,311,6.0,18.0,85,0.00,,---,0.00,VWS V14.01,2013-02-03 12:40:00,
2013-02-03 06:41:00,26.6,24.6,29.95,NW,318,10.0,18.0,92,0.00,,---,0.00,VWS V14.01,2013-02-03 12:41:00,
2013-02-03 06:45:00,26.8,22.6,29.95,West,277,7.0,18.0,84,0.00,,---,0.00,VWS V14.01,2013-02-03 12:45:00,
2013-02-03 06:46:00,26.7,22.5,29.95,WNW,296,16.0,18.0,84,0.00,,---,0.00,VWS V14.01,2013-02-03 12:46:00,
2013-02-03 06:50:00,26.8,22.6,29.96,NNW,327,6.0,20.0,84,0.00,,---,0.00,VWS V14.01,2013-02-03 12:50:00,
2013-02-03 06:51:00,26.8,22.6,29.96,NW,308,3.0,20.0,84,0.00,,---,0.00,VWS V14.01,2013-02-03 12:51:00,
2013-02-03 06:55:00,26.7,22.2,29.96,NNW,332,7.0,20.0,83,0.00,,---,0.00,VWS V14.01,2013-02-03 12:55:00,
2013-02-03 06:56:00,26.7,22.2,29.96,NNW,335,11.0,20.0,83,0.00,,---,0.00,VWS V14.01,2013-02-03 12:56:00,
2013-02-03 07:01:00,26.7,22.2,29.96,NW,308,5.0,7.0,83,0.00,,---,0.00,VWS V14.01,2013-02-03 13:01:00,
2013-02-03 07:06:00,26.6,21.9,29.96,WNW,295,12.0,15.0,82,0.00,,---,0.00,VWS V14.01,2013-02-03 13:06:00,
2013-02-03 07:11:00,26.6,21.9,29.97,WNW,292,10.0,15.0,82,0.00,,---,0.00,VWS V14.01,2013-02-03 13:11:00,
2013-02-03 07:16:00,26.6,22.1,29.97,NW,325,9.0,15.0,83,0.00,,---,0.00,VWS V14.01,2013-02-03 13:16:00,
2013-02-03 07:21:00,26.5,22.0,29.97,NW,317,10.0,15.0,83,0.00,,---,0.00,VWS V14.01,2013-02-03 13:21:00,
2013-02-03 07:26:00,26.6,21.9,29.97,WNW,302,11.0,16.0,82,0.00,,---,0.00,VWS V14.01,2013-02-03 13:26:00,
2013-02-03 07:31:00,26.6,21.9,29.98,NW,319,6.0,7.0,82,0.00,,---,0.00,VWS V14.01,2013-02-03 13:31:00,
2013-02-03 07:36:00,26.6,21.9,29.98,NNW,333,4.0,13.0,82,0.00,,---,0.00,VWS V14.01,2013-02-03 13:36:00,
2013-02-03 07:37:00,26.6,21.9,29.98,NW,320,3.0,13.0,82,0.00,,---,0.00,VWS V14.01,2013-02-03 13:37:00,
2013-02-03 07:41:00,26.7,22.0,29.98,NNW,337,4.0,15.0,82,0.00,,---,0.00,VWS V14.01,2013-02-03 13:41:00,
2013-02-03 07:42:00,26.7,22.0,29.98,NW,316,8.0,15.0,82,0.00,,---,0.00,VWS V14.01,2013-02-03 13:42:00,
2013-02-03 07:46:00,26.7,22.0,29.98,NNW,346,9.0,15.0,82,0.00,,---,0.00,VWS V14.01,2013-02-03 13:46:00,
2013-02-03 07:47:00,26.8,22.0,29.98,NNW,343,7.0,15.0,82,0.00,,---,0.00,VWS V14.01,2013-02-03 13:47:00,
2013-02-03 07:52:00,26.7,21.4,29.98,NW,324,11.0,18.0,80,0.00,,---,0.00,VWS V14.01,2013-02-03 13:52:00,
2013-02-03 07:57:00,26.2,20.0,29.99,WNW,288,12.0,23.0,77,0.00,,---,0.00,VWS V14.01,2013-02-03 13:57:00,
2013-02-03 08:02:00,25.9,19.7,29.99,WNW,303,12.0,16.0,77,0.00,,---,0.00,VWS V14.01,2013-02-03 14:02:00,
2013-02-03 08:07:00,25.7,19.8,29.99,NW,307,15.0,18.0,78,0.00,,---,0.00,VWS V14.01,2013-02-03 14:07:00,
2013-02-03 08:12:00,25.5,19.6,29.99,NNW,333,11.0,19.0,78,0.00,,---,0.00,VWS V14.01,2013-02-03 14:12:00,
2013-02-03 08:13:00,25.6,19.7,29.99,West,263,7.0,20.0,78,0.00,,---,0.00,VWS V14.01,2013-02-03 14:13:00,
2013-02-03 08:17:00,25.7,19.5,30.00,NW,306,9.0,20.0,77,0.00,,---,0.00,VWS V14.01,2013-02-03 14:17:00,
2013-02-03 08:18:00,25.7,19.5,30.00,NW,326,8.0,20.0,77,0.00,,---,0.00,VWS V14.01,2013-02-03 14:18:00,
2013-02-03 08:22:00,25.7,19.5,30.00,NW,326,8.0,20.0,77,0.00,,---,0.00,VWS V14.01,2013-02-03 14:22:00,
2013-02-03 08:23:00,25.7,19.5,30.00,NW,326,8.0,20.0,77,0.00,,---,0.00,VWS V14.01,2013-02-03 14:23:00,
2013-02-03 08:27:00,25.4,19.2,30.00,NW,318,7.0,20.0,77,0.00,,---,0.00,VWS V14.01,2013-02-03 14:27:00,
2013-02-03 08:28:00,25.4,19.2,30.00,NNW,335,12.0,20.0,77,0.00,,---,0.00,VWS V14.01,2013-02-03 14:28:00,
2013-02-03 08:32:00,25.3,19.1,30.01,NNW,339,15.0,26.0,77,0.00,,---,0.00,VWS V14.01,2013-02-03 14:32:00,
2013-02-03 08:33:00,25.3,19.1,30.01,WNW,296,7.0,26.0,77,0.00,,---,0.00,VWS V14.01,2013-02-03 14:33:00,
2013-02-03 08:37:00,25.2,19.0,30.01,NNW,330,12.0,26.0,77,0.00,,---,0.00,VWS V14.01,2013-02-03 14:37:00,
2013-02-03 08:38:00,25.2,19.0,30.01,West,275,16.0,26.0,77,0.00,,---,0.00,VWS V14.01,2013-02-03 14:38:00,
2013-02-03 08:42:00,25.1,18.9,30.01,WNW,288,12.0,26.0,77,0.00,,---,0.00,VWS V14.01,2013-02-03 14:42:00,
2013-02-03 08:43:00,25.0,18.8,30.01,NW,306,16.0,26.0,77,0.00,,---,0.00,VWS V14.01,2013-02-03 14:43:00,
2013-02-03 08:47:00,24.8,18.6,30.02,West,281,13.0,26.0,77,0.00,,---,0.00,VWS V14.01,2013-02-03 14:47:00,
2013-02-03 08:48:00,24.8,18.6,30.02,WNW,293,12.0,26.0,77,0.00,,---,0.00,VWS V14.01,2013-02-03 14:48:00,
2013-02-03 08:52:00,24.7,18.5,30.02,NW,325,6.0,26.0,77,0.00,,---,0.00,VWS V14.01,2013-02-03 14:52:00,
2013-02-03 08:53:00,24.7,18.5,30.02,NNW,344,17.0,26.0,77,0.00,,---,0.00,VWS V14.01,2013-02-03 14:53:00,
2013-02-03 08:57:00,24.6,18.1,30.02,WNW,288,18.0,26.0,76,0.00,,---,0.00,VWS V14.01,2013-02-03 14:57:00,
2013-02-03 08:58:00,24.6,18.1,30.02,WNW,288,18.0,26.0,76,0.00,,---,0.00,VWS V14.01,2013-02-03 14:58:00,
2013-02-03 08:59:00,24.5,18.0,30.02,NNW,329,16.0,26.0,76,0.00,,---,0.00,VWS V14.01,2013-02-03 14:59:00,
2013-02-03 09:02:00,24.5,18.0,30.02,WNW,302,9.0,13.0,76,0.00,,---,0.00,VWS V14.01,2013-02-03 15:02:00,
2013-02-03 09:03:00,24.5,18.0,30.02,WNW,302,9.0,13.0,76,0.00,,---,0.00,VWS V14.01,2013-02-03 15:03:00,
2013-02-03 09:04:00,24.5,18.3,30.02,WNW,298,4.0,14.0,77,0.00,,---,0.00,VWS V14.01,2013-02-03 15:04:00,
2013-02-03 09:08:00,24.6,18.1,30.02,WNW,296,17.0,17.0,76,0.00,,---,0.00,VWS V14.01,2013-02-03 15:08:00,
2013-02-03 09:09:00,24.6,18.1,30.02,NNW,331,4.0,17.0,76,0.00,,---,0.00,VWS V14.01,2013-02-03 15:09:00,
2013-02-03 09:13:00,24.6,18.1,30.02,West,279,20.0,20.0,76,0.00,,---,0.00,VWS V14.01,2013-02-03 15:13:00,
2013-02-03 09:14:00,24.5,18.0,30.02,WNW,300,18.0,23.0,76,0.00,,---,0.00,VWS V14.01,2013-02-03 15:14:00,
2013-02-03 09:18:00,24.4,17.6,30.03,NNW,339,20.0,23.0,75,0.00,,---,0.00,VWS V14.01,2013-02-03 15:18:00,
2013-02-03 09:19:00,24.3,17.5,30.03,NNW,327,17.0,23.0,75,0.00,,---,0.00,VWS V14.01,2013-02-03 15:19:00,
2013-02-03 09:23:00,24.1,17.6,30.03,WNW,299,11.0,23.0,76,0.00,,---,0.00,VWS V14.01,2013-02-03 15:23:00,
2013-02-03 09:24:00,24.1,17.6,30.03,NNW,342,7.0,23.0,76,0.00,,---,0.00,VWS V14.01,2013-02-03 15:24:00,
2013-02-03 09:28:00,24.1,17.6,30.04,WNW,299,7.0,23.0,76,0.00,,---,0.00,VWS V14.01,2013-02-03 15:28:00,
2013-02-03 09:29:00,24.1,17.6,30.04,WNW,288,11.0,23.0,76,0.00,,---,0.00,VWS V14.01,2013-02-03 15:29:00,
2013-02-03 09:30:00,24.1,18.0,30.04,WNW,291,7.0,23.0,77,0.00,,---,0.00,VWS V14.01,2013-02-03 15:30:00,
2013-02-03 09:33:00,24.2,17.7,30.04,West,265,13.0,18.0,76,0.00,,---,0.00,VWS V14.01,2013-02-03 15:33:00,
2013-02-03 09:34:00,24.2,17.7,30.04,NNW,330,17.0,18.0,76,0.00,,---,0.00,VWS V14.01,2013-02-03 15:34:00,
2013-02-03 09:35:00,24.1,17.3,30.04,NW,309,13.0,21.0,75,0.00,,---,0.00,VWS V14.01,2013-02-03 15:35:00,
2013-02-03 09:39:00,23.9,17.1,30.04,NNW,348,9.0,21.0,75,0.00,,---,0.00,VWS V14.01,2013-02-03 15:39:00,
2013-02-03 09:40:00,23.9,17.1,30.04,NNW,332,11.0,21.0,75,0.00,,---,0.00,VWS V14.01,2013-02-03 15:40:00,
2013-02-03 09:44:00,23.7,16.6,30.05,NW,305,14.0,22.0,74,0.00,,---,0.00,VWS V14.01,2013-02-03 15:44:00,
2013-02-03 09:45:00,23.7,16.6,30.05,WNW,297,13.0,23.0,74,0.00,,---,0.00,VWS V14.01,2013-02-03 15:45:00,
2013-02-03 09:49:00,23.7,17.0,30.05,WNW,294,19.0,23.0,75,0.00,,---,0.00,VWS V14.01,2013-02-03 15:49:00,
2013-02-03 09:50:00,23.8,17.0,30.05,NW,323,15.0,23.0,75,0.00,,---,0.00,VWS V14.01,2013-02-03 15:50:00,
2013-02-03 09:54:00,23.7,16.6,30.05,NW,311,10.0,23.0,74,0.00,,---,0.00,VWS V14.01,2013-02-03 15:54:00,
2013-02-03 09:55:00,23.8,16.7,30.05,WNW,288,16.0,23.0,74,0.00,,---,0.00,VWS V14.01,2013-02-03 15:55:00,
2013-02-03 09:59:00,23.7,16.3,30.05,NW,309,16.0,23.0,73,0.00,,---,0.00,VWS V14.01,2013-02-03 15:59:00,
2013-02-03 10:00:00,23.7,16.0,30.05,WNW,300,15.0,23.0,72,0.00,,---,0.00,VWS V14.01,2013-02-03 16:00:00,
2013-02-03 10:04:00,23.9,16.8,30.05,NW,309,6.0,22.0,74,0.00,,---,0.00,VWS V14.01,2013-02-03 16:04:00,
2013-02-03 10:05:00,23.9,16.8,30.05,WNW,302,5.0,22.0,74,0.00,,---,0.00,VWS V14.01,2013-02-03 16:05:00,
2013-02-03 10:10:00,24.4,17.0,30.05,WNW,288,17.0,24.0,73,0.00,,---,0.00,VWS V14.01,2013-02-03 16:10:00,
2013-02-03 10:15:00,24.4,16.7,30.05,WNW,292,12.0,24.0,72,0.00,,---,0.00,VWS V14.01,2013-02-03 16:15:00,
2013-02-03 10:20:00,25.0,18.5,30.05,WNW,294,13.0,24.0,76,0.00,,---,0.00,VWS V14.01,2013-02-03 16:20:00,
2013-02-03 10:21:00,25.2,18.7,30.06,WNW,300,13.0,24.0,76,0.00,,---,0.00,VWS V14.01,2013-02-03 16:21:00,
2013-02-03 10:25:00,25.4,18.0,30.06,WNW,302,16.0,24.0,73,0.00,,---,0.00,VWS V14.01,2013-02-03 16:25:00,
2013-02-03 10:26:00,25.4,18.0,30.06,WNW,290,17.0,24.0,73,0.00,,---,0.00,VWS V14.01,2013-02-03 16:26:00,
2013-02-03 10:30:00,25.3,17.9,30.06,WNW,292,11.0,24.0,73,0.00,,---,0.00,VWS V14.01,2013-02-03 16:30:00,
2013-02-03 10:31:00,25.4,18.3,30.06,WNW,290,14.0,19.0,74,0.00,,---,0.00,VWS V14.01,2013-02-03 16:31:00,
2013-02-03 10:35:00,25.4,18.0,30.06,NW,311,20.0,20.0,73,0.00,,---,0.00,VWS V14.01,2013-02-03 16:35:00,
2013-02-03 10:36:00,25.4,17.6,30.06,WNW,299,15.0,27.0,72,0.00,,---,0.00,VWS V14.01,2013-02-03 16:36:00,
2013-02-03 10:40:00,25.8,18.4,30.06,NW,306,21.0,27.0,73,0.00,,---,0.00,VWS V14.01,2013-02-03 16:40:00,
2013-02-03 10:41:00,25.9,18.1,30.06,NW,315,17.0,27.0,72,0.00,,---,0.00,VWS V14.01,2013-02-03 16:41:00,
2013-02-03 10:42:00,25.9,17.8,30.06,WNW,292,14.0,27.0,71,0.00,,---,0.00,VWS V14.01,2013-02-03 16:42:00,
2013-02-03 10:45:00,26.2,18.4,30.06,WNW,289,18.0,27.0,72,0.00,,---,0.00,VWS V14.01,2013-02-03 16:45:00,
2013-02-03 10:46:00,26.2,17.8,30.07,WNW,289,15.0,27.0,70,0.00,,---,0.00,VWS V14.01,2013-02-03 16:46:00,
2013-02-03 10:47:00,26.1,17.7,30.07,WNW,284,15.0,27.0,70,0.00,,---,0.00,VWS V14.01,2013-02-03 16:47:00,
2013-02-03 10:50:00,25.9,17.1,30.07,WNW,295,18.0,27.0,69,0.00,,---,0.00,VWS V14.01,2013-02-03 16:50:00,
2013-02-03 10:51:00,25.9,17.1,30.07,WNW,298,18.0,27.0,69,0.00,,---,0.00,VWS V14.01,2013-02-03 16:51:00,
2013-02-03 10:52:00,25.9,16.8,30.07,NW,310,12.0,27.0,68,0.00,,---,0.00,VWS V14.01,2013-02-03 16:52:00,
2013-02-03 10:56:00,26.0,17.2,30.07,WNW,289,14.0,27.0,69,0.00,,---,0.00,VWS V14.01,2013-02-03 16:56:00,
2013-02-03 10:57:00,26.0,17.2,30.07,WNW,292,14.0,27.0,69,0.00,,---,0.00,VWS V14.01,2013-02-03 16:57:00,
2013-02-03 11:01:00,26.2,17.8,30.07,WNW,298,16.0,19.0,70,0.00,,---,0.00,VWS V14.01,2013-02-03 17:01:00,
2013-02-03 11:02:00,26.1,17.3,30.07,WNW,296,19.0,19.0,69,0.00,,---,0.00,VWS V14.01,2013-02-03 17:02:00,
2013-02-03 11:06:00,26.5,18.0,30.07,West,268,12.0,20.0,70,0.00,,---,0.00,VWS V14.01,2013-02-03 17:06:00,
2013-02-03 11:07:00,26.6,18.1,30.07,NW,322,18.0,20.0,70,0.00,,---,0.00,VWS V14.01,2013-02-03 17:07:00,
2013-02-03 11:11:00,26.9,17.8,30.07,WNW,298,20.0,24.0,68,0.00,,---,0.00,VWS V14.01,2013-02-03 17:11:00,
2013-02-03 11:13:00,26.9,17.4,30.06,NW,309,18.0,24.0,67,0.00,,---,0.00,VWS V14.01,2013-02-03 17:13:00,
2013-02-03 11:16:00,26.7,16.5,30.07,NW,304,22.0,24.0,65,0.00,,---,0.00,VWS V14.01,2013-02-03 17:16:00,
2013-02-03 11:17:00,26.7,16.9,30.06,NW,310,14.0,24.0,66,0.00,,---,0.00,VWS V14.01,2013-02-03 17:17:00,
2013-02-03 11:18:00,26.7,17.2,30.06,WNW,294,14.0,24.0,67,0.00,,---,0.00,VWS V14.01,2013-02-03 17:18:00,
2013-02-03 11:21:00,26.9,16.7,30.06,WNW,284,19.0,24.0,65,0.00,,---,0.00,VWS V14.01,2013-02-03 17:21:00,
2013-02-03 11:22:00,26.9,16.7,30.06,West,281,16.0,24.0,65,0.00,,---,0.00,VWS V14.01,2013-02-03 17:22:00,
2013-02-03 11:23:00,26.9,16.7,30.07,WNW,300,19.0,24.0,65,0.00,,---,0.00,VWS V14.01,2013-02-03 17:23:00,
2013-02-03 11:26:00,26.9,16.7,30.07,WNW,294,16.0,28.0,65,0.00,,---,0.00,VWS V14.01,2013-02-03 17:26:00,
2013-02-03 11:27:00,26.9,16.7,30.07,WNW,299,21.0,28.0,65,0.00,,---,0.00,VWS V14.01,2013-02-03 17:27:00,
2013-02-03 11:28:00,26.9,16.7,30.07,NNW,330,14.0,28.0,65,0.00,,---,0.00,VWS V14.01,2013-02-03 17:28:00,
2013-02-03 11:32:00,27.1,16.9,30.07,NW,315,13.0,20.0,65,0.00,,---,0.00,VWS V14.01,2013-02-03 17:32:00,
2013-02-03 11:33:00,27.2,17.0,30.07,WNW,286,21.0,21.0,65,0.00,,---,0.00,VWS V14.01,2013-02-03 17:33:00,
2013-02-03 11:37:00,27.4,17.5,30.07,NW,309,21.0,24.0,66,0.00,,---,0.00,VWS V14.01,2013-02-03 17:37:00,
2013-02-03 11:38:00,27.4,17.5,30.07,WNW,291,17.0,24.0,66,0.00,,---,0.00,VWS V14.01,2013-02-03 17:38:00,
2013-02-03 11:42:00,27.4,17.5,30.07,WNW,294,17.0,28.0,66,0.00,,---,0.00,VWS V14.01,2013-02-03 17:42:00,
2013-02-03 11:43:00,27.5,17.6,30.07,NW,319,14.0,28.0,66,0.00,,---,0.00,VWS V14.01,2013-02-03 17:43:00,
2013-02-03 11:47:00,27.4,16.8,30.07,WNW,289,14.0,28.0,64,0.00,,---,0.00,VWS V14.01,2013-02-03 17:47:00,
2013-02-03 11:48:00,27.6,17.7,30.07,NW,310,19.0,28.0,66,0.00,,---,0.00,VWS V14.01,2013-02-03 17:48:00,
2013-02-03 11:52:00,28.1,18.2,30.07,WNW,295,16.0,28.0,66,0.00,,---,0.00,VWS V14.01,2013-02-03 17:52:00,
2013-02-03 11:53:00,28.2,18.0,30.07,WNW,295,16.0,28.0,65,0.00,,---,0.00,VWS V14.01,2013-02-03 17:53:00,
2013-02-03 11:54:00,28.3,18.1,30.07,WNW,298,17.0,28.0,65,0.00,,---,0.00,VWS V14.01,2013-02-03 17:54:00,
2013-02-03 11:57:00,28.5,17.9,30.07,WNW,284,16.0,28.0,64,0.00,,---,0.00,VWS V14.01,2013-02-03 17:57:00,
2013-02-03 11:58:00,28.5,17.9,30.07,WNW,296,17.0,28.0,64,0.00,,---,0.00,VWS V14.01,2013-02-03 17:58:00,
2013-02-03 11:59:00,28.5,17.5,30.07,West,259,14.0,28.0,63,0.00,,---,0.00,VWS V14.01,2013-02-03 17:59:00,
2013-02-03 12:03:00,28.5,17.1,30.07,WNW,302,13.0,28.0,62,0.00,,---,0.00,VWS V14.01,2013-02-03 18:03:00,
2013-02-03 12:04:00,28.5,17.1,30.07,NW,309,19.0,28.0,62,0.00,,---,0.00,VWS V14.01,2013-02-03 18:04:00,
2013-02-03 12:08:00,28.3,16.6,30.08,North,351,14.0,28.0,61,0.00,,---,0.00,VWS V14.01,2013-02-03 18:08:00,
2013-02-03 12:09:00,28.4,17.1,30.08,WNW,289,16.0,28.0,62,0.00,,---,0.00,VWS V14.01,2013-02-03 18:09:00,
2013-02-03 12:13:00,28.6,16.9,30.08,WNW,287,17.0,28.0,61,0.00,,---,0.00,VWS V14.01,2013-02-03 18:13:00,
2013-02-03 12:14:00,28.6,16.9,30.08,NW,308,15.0,28.0,61,0.00,,---,0.00,VWS V14.01,2013-02-03 18:14:00,
2013-02-03 12:18:00,28.3,16.6,30.08,WNW,302,14.0,28.0,61,0.00,,---,0.00,VWS V14.01,2013-02-03 18:18:00,
2013-02-03 12:19:00,28.4,17.1,30.07,NW,306,11.0,28.0,62,0.00,,---,0.00,VWS V14.01,2013-02-03 18:19:00,
2013-02-03 12:23:00,28.5,17.1,30.07,West,280,11.0,28.0,62,0.00,,---,0.00,VWS V14.01,2013-02-03 18:23:00,
2013-02-03 12:24:00,28.7,17.3,30.07,NW,313,13.0,28.0,62,0.00,,---,0.00,VWS V14.01,2013-02-03 18:24:00,
2013-02-03 12:28:00,28.8,16.3,30.07,NW,309,20.0,28.0,59,0.00,,---,0.00,VWS V14.01,2013-02-03 18:28:00,
2013-02-03 12:29:00,28.7,16.2,30.07,NW,306,15.0,28.0,59,0.00,,---,0.00,VWS V14.01,2013-02-03 18:29:00,
2013-02-03 12:34:00,28.8,17.1,30.08,WNW,286,19.0,19.0,61,0.00,,---,0.00,VWS V14.01,2013-02-03 18:34:00,
2013-02-03 12:39:00,28.5,15.2,30.08,WNW,287,18.0,21.0,57,0.00,,---,0.00,VWS V14.01,2013-02-03 18:39:00,
2013-02-03 12:44:00,28.9,17.5,30.08,NW,311,11.0,21.0,62,0.00,,---,0.00,VWS V14.01,2013-02-03 18:44:00,
2013-02-03 12:45:00,29.0,17.6,30.08,WNW,300,11.0,21.0,62,0.00,,---,0.00,VWS V14.01,2013-02-03 18:45:00,
2013-02-03 12:49:00,29.3,16.4,30.08,NW,311,13.0,22.0,58,0.00,,---,0.00,VWS V14.01,2013-02-03 18:49:00,
2013-02-03 12:50:00,29.4,16.5,30.08,NW,309,20.0,22.0,58,0.00,,---,0.00,VWS V14.01,2013-02-03 18:50:00,
2013-02-03 12:54:00,29.6,17.0,30.08,WNW,286,12.0,24.0,59,0.00,,---,0.00,VWS V14.01,2013-02-03 18:54:00,
2013-02-03 12:55:00,29.6,17.0,30.08,NW,319,14.0,24.0,59,0.00,,---,0.00,VWS V14.01,2013-02-03 18:55:00,
2013-02-03 12:59:00,29.4,16.5,30.07,WNW,302,12.0,24.0,58,0.00,,---,0.00,VWS V14.01,2013-02-03 18:59:00,
2013-02-03 13:00:00,29.4,16.5,30.07,NW,306,13.0,24.0,58,0.00,,---,0.00,VWS V14.01,2013-02-03 19:00:00,
2013-02-03 13:04:00,29.4,15.7,30.08,NW,311,16.0,18.0,56,0.00,,---,0.00,VWS V14.01,2013-02-03 19:04:00,
2013-02-03 13:05:00,29.4,15.7,30.08,WNW,286,14.0,18.0,56,0.00,,---,0.00,VWS V14.01,2013-02-03 19:05:00,
2013-02-03 13:09:00,29.4,15.2,30.07,NW,307,15.0,21.0,55,0.00,,---,0.00,VWS V14.01,2013-02-03 19:09:00,
2013-02-03 13:10:00,29.4,15.2,30.07,West,277,12.0,21.0,55,0.00,,---,0.00,VWS V14.01,2013-02-03 19:10:00,
2013-02-03 13:14:00,29.4,15.7,30.08,NW,325,13.0,24.0,56,0.00,,---,0.00,VWS V14.01,2013-02-03 19:14:00,
2013-02-03 13:15:00,29.4,15.7,30.08,WNW,294,15.0,24.0,56,0.00,,---,0.00,VWS V14.01,2013-02-03 19:15:00,
2013-02-03 13:20:00,29.5,16.6,30.08,NNW,331,15.0,24.0,58,0.00,,---,0.00,VWS V14.01,2013-02-03 19:20:00,
2013-02-03 13:25:00,29.7,16.4,30.08,WNW,302,11.0,24.0,57,0.00,,---,0.00,VWS V14.01,2013-02-03 19:25:00,
2013-02-03 13:30:00,30.2,15.1,30.08,WSW,246,13.0,24.0,53,0.00,,---,0.00,VWS V14.01,2013-02-03 19:30:00,
2013-02-03 13:35:00,30.0,14.5,30.08,NNW,338,18.0,19.0,52,0.00,,---,0.00,VWS V14.01,2013-02-03 19:35:00,
2013-02-03 13:40:00,29.6,15.0,30.08,WNW,294,10.0,19.0,54,0.00,,---,0.00,VWS V14.01,2013-02-03 19:40:00,
2013-02-03 13:41:00,29.6,15.0,30.08,SSE,168,9.0,19.0,54,0.00,,---,0.00,VWS V14.01,2013-02-03 19:41:00,
2013-02-03 13:45:00,29.9,14.9,30.07,NW,324,17.0,20.0,53,0.00,,---,0.00,VWS V14.01,2013-02-03 19:45:00,
2013-02-03 13:46:00,29.9,15.3,30.07,West,265,11.0,20.0,54,0.00,,---,0.00,VWS V14.01,2013-02-03 19:46:00,
2013-02-03 13:50:00,29.8,14.3,30.07,NNW,333,16.0,20.0,52,0.00,,---,0.00,VWS V14.01,2013-02-03 19:50:00,
2013-02-03 13:51:00,29.8,14.3,30.07,WNW,303,14.0,20.0,52,0.00,,---,0.00,VWS V14.01,2013-02-03 19:51:00,
2013-02-03 13:55:00,29.9,14.4,30.07,WNW,298,8.0,23.0,52,0.00,,---,0.00,VWS V14.01,2013-02-03 19:55:00,
2013-02-03 13:56:00,29.9,14.4,30.07,WNW,295,18.0,23.0,52,0.00,,---,0.00,VWS V14.01,2013-02-03 19:56:00,
2013-02-03 14:00:00,30.1,15.1,30.07,NW,309,15.0,15.0,53,0.00,,---,0.00,VWS V14.01,2013-02-03 20:00:00,
2013-02-03 14:01:00,30.1,15.1,30.07,NNW,337,14.0,16.0,53,0.00,,---,0.00,VWS V14.01,2013-02-03 20:01:00,
2013-02-03 14:05:00,30.4,15.8,30.07,NW,306,12.0,20.0,54,0.00,,---,0.00,VWS V14.01,2013-02-03 20:05:00,
2013-02-03 14:06:00,30.4,16.6,30.07,NW,320,10.0,20.0,56,0.00,,---,0.00,VWS V14.01,2013-02-03 20:06:00,
2013-02-03 14:10:00,30.4,15.8,30.07,WNW,296,18.0,20.0,54,0.00,,---,0.00,VWS V14.01,2013-02-03 20:10:00,
2013-02-03 14:11:00,30.4,15.3,30.07,West,279,13.0,20.0,53,0.00,,---,0.00,VWS V14.01,2013-02-03 20:11:00,
2013-02-03 14:15:00,30.6,15.1,30.07,NW,304,18.0,20.0,52,0.00,,---,0.00,VWS V14.01,2013-02-03 20:15:00,
2013-02-03 14:16:00,30.6,15.1,30.07,NW,306,10.0,20.0,52,0.00,,---,0.00,VWS V14.01,2013-02-03 20:16:00,
2013-02-03 14:21:00,30.5,15.0,30.07,WNW,290,15.0,20.0,52,0.00,,---,0.00,VWS V14.01,2013-02-03 20:21:00,
2013-02-03 14:26:00,30.5,14.1,30.07,West,281,5.0,20.0,50,0.00,,---,0.00,VWS V14.01,2013-02-03 20:26:00,
2013-02-03 14:31:00,30.7,16.0,30.07,NW,308,10.0,10.0,54,0.00,,---,0.00,VWS V14.01,2013-02-03 20:31:00,
2013-02-03 14:36:00,30.6,15.5,30.07,NW,304,7.0,19.0,53,0.00,,---,0.00,VWS V14.01,2013-02-03 20:36:00,
2013-02-03 14:41:00,30.5,15.4,30.07,WNW,289,7.0,19.0,53,0.00,,---,0.00,VWS V14.01,2013-02-03 20:41:00,
2013-02-03 14:46:00,30.7,16.0,30.07,NW,310,14.0,19.0,54,0.00,,---,0.00,VWS V14.01,2013-02-03 20:46:00,
2013-02-03 14:47:00,30.6,15.9,30.07,NW,306,14.0,19.0,54,0.00,,---,0.00,VWS V14.01,2013-02-03 20:47:00,
2013-02-03 14:51:00,30.7,16.9,30.07,NW,312,9.0,19.0,56,0.00,,---,0.00,VWS V14.01,2013-02-03 20:51:00,
2013-02-03 14:52:00,30.8,17.0,30.07,NNW,330,12.0,19.0,56,0.00,,---,0.00,VWS V14.01,2013-02-03 20:52:00,
2013-02-03 14:56:00,31.1,16.4,30.07,WNW,287,10.0,19.0,54,0.00,,---,0.00,VWS V14.01,2013-02-03 20:56:00,
2013-02-03 14:57:00,31.1,16.4,30.07,NW,316,10.0,19.0,54,0.00,,---,0.00,VWS V14.01,2013-02-03 20:57:00,
2013-02-03 15:01:00,31.1,15.5,30.07,WNW,289,8.0,14.0,52,0.00,,---,0.00,VWS V14.01,2013-02-03 21:01:00,
2013-02-03 15:02:00,31.1,15.5,30.07,WNW,300,7.0,14.0,52,0.00,,---,0.00,VWS V14.01,2013-02-03 21:02:00,
2013-02-03 15:06:00,31.3,16.2,30.07,WNW,302,8.0,14.0,53,0.00,,---,0.00,VWS V14.01,2013-02-03 21:06:00,
2013-02-03 15:07:00,31.3,16.2,30.07,NW,309,11.0,15.0,53,0.00,,---,0.00,VWS V14.01,2013-02-03 21:07:00,
2013-02-03 15:11:00,30.8,16.1,30.07,West,265,5.0,15.0,54,0.00,,---,0.00,VWS V14.01,2013-02-03 21:11:00,
2013-02-03 15:12:00,30.7,16.0,30.07,WNW,299,9.0,15.0,54,0.00,,---,0.00,VWS V14.01,2013-02-03 21:12:00,
2013-02-03 15:16:00,30.3,16.5,30.07,WNW,302,7.0,15.0,56,0.00,,---,0.00,VWS V14.01,2013-02-03 21:16:00,
2013-02-03 15:17:00,30.3,16.1,30.07,NNW,332,11.0,15.0,55,0.00,,---,0.00,VWS V14.01,2013-02-03 21:17:00,
2013-02-03 15:21:00,30.2,16.8,30.07,WNW,298,9.0,15.0,57,0.00,,---,0.00,VWS V14.01,2013-02-03 21:21:00,
2013-02-03 15:22:00,30.2,16.8,30.07,WNW,287,7.0,15.0,57,0.00,,---,0.00,VWS V14.01,2013-02-03 21:22:00,
2013-02-03 15:26:00,30.2,16.4,30.07,NW,306,10.0,15.0,56,0.00,,---,0.00,VWS V14.01,2013-02-03 21:26:00,
2013-02-03 15:27:00,30.2,16.4,30.07,West,271,9.0,15.0,56,0.00,,---,0.00,VWS V14.01,2013-02-03 21:27:00,
2013-02-03 15:32:00,30.3,16.9,30.07,WNW,292,10.0,12.0,57,0.00,,---,0.00,VWS V14.01,2013-02-03 21:32:00,
2013-02-03 15:33:00,30.4,17.0,30.07,WNW,292,7.0,12.0,57,0.00,,---,0.00,VWS V14.01,2013-02-03 21:33:00,
2013-02-03 15:37:00,30.2,16.8,30.07,NW,317,13.0,14.0,57,0.00,,---,0.00,VWS V14.01,2013-02-03 21:37:00,
2013-02-03 15:38:00,30.2,16.4,30.07,NW,322,10.0,14.0,56,0.00,,---,0.00,VWS V14.01,2013-02-03 21:38:00,
2013-02-03 15:42:00,30.3,16.5,30.07,West,273,8.0,14.0,56,0.00,,---,0.00,VWS V14.01,2013-02-03 21:42:00,
2013-02-03 15:43:00,30.3,16.5,30.07,WNW,283,7.0,14.0,56,0.00,,---,0.00,VWS V14.01,2013-02-03 21:43:00,
2013-02-03 15:47:00,30.2,16.4,30.06,West,277,6.0,14.0,56,0.00,,---,0.00,VWS V14.01,2013-02-03 21:47:00,
2013-02-03 15:48:00,30.2,16.4,30.07,WNW,287,11.0,14.0,56,0.00,,---,0.00,VWS V14.01,2013-02-03 21:48:00,
2013-02-03 15:52:00,30.0,16.6,30.07,WNW,294,8.0,14.0,57,0.00,,---,0.00,VWS V14.01,2013-02-03 21:52:00,
2013-02-03 15:53:00,30.0,16.6,30.07,WNW,294,8.0,14.0,57,0.00,,---,0.00,VWS V14.01,2013-02-03 21:53:00,
2013-02-03 15:57:00,29.9,15.3,30.07,WNW,292,9.0,14.0,54,0.00,,---,0.00,VWS V14.01,2013-02-03 21:57:00,
2013-02-03 15:58:00,29.9,15.7,30.06,WNW,282,9.0,14.0,55,0.00,,---,0.00,VWS V14.01,2013-02-03 21:58:00,
2013-02-03 16:02:00,30.1,16.7,30.06,West,281,10.0,10.0,57,0.00,,---,0.00,VWS V14.01,2013-02-03 22:02:00,
2013-02-03 16:03:00,30.1,16.3,30.06,WNW,284,9.0,10.0,56,0.00,,---,0.00,VWS V14.01,2013-02-03 22:03:00,
2013-02-03 16:07:00,29.9,16.1,30.06,NW,304,8.0,12.0,56,0.00,,---,0.00,VWS V14.01,2013-02-03 22:07:00,
2013-02-03 16:08:00,29.9,16.1,30.06,WNW,292,8.0,12.0,56,0.00,,---,0.00,VWS V14.01,2013-02-03 22:08:00,
2013-02-03 16:12:00,29.8,16.4,30.06,WNW,296,6.0,12.0,57,0.00,,---,0.00,VWS V14.01,2013-02-03 22:12:00,
2013-02-03 16:13:00,29.8,16.4,30.06,WNW,296,6.0,12.0,57,0.00,,---,0.00,VWS V14.01,2013-02-03 22:13:00,
2013-02-03 16:17:00,29.6,15.8,30.05,WNW,292,4.0,12.0,56,0.00,,---,0.00,VWS V14.01,2013-02-03 22:17:00,
2013-02-03 16:18:00,29.7,15.5,30.05,WNW,299,9.0,12.0,55,0.00,,---,0.00,VWS V14.01,2013-02-03 22:18:00,
2013-02-03 16:22:00,29.6,15.8,30.05,WNW,289,5.0,12.0,56,0.00,,---,0.00,VWS V14.01,2013-02-03 22:22:00,
2013-02-03 16:23:00,29.6,15.8,30.05,WNW,292,7.0,12.0,56,0.00,,---,0.00,VWS V14.01,2013-02-03 22:23:00,
2013-02-03 16:28:00,29.6,15.8,30.05,WNW,293,6.0,12.0,56,0.00,,---,0.00,VWS V14.01,2013-02-03 22:28:00,
2013-02-03 16:29:00,29.6,15.8,30.05,WNW,287,10.0,12.0,56,0.00,,---,0.00,VWS V14.01,2013-02-03 22:29:00,
2013-02-03 16:33:00,29.5,15.3,30.05,WNW,291,5.0,8.0,55,0.00,,---,0.00,VWS V14.01,2013-02-03 22:33:00,
2013-02-03 16:34:00,29.4,15.7,30.05,WNW,288,6.0,8.0,56,0.00,,---,0.00,VWS V14.01,2013-02-03 22:34:00,
2013-02-03 16:38:00,29.4,15.7,30.04,WNW,286,6.0,8.0,56,0.00,,---,0.00,VWS V14.01,2013-02-03 22:38:00,
2013-02-03 16:39:00,29.4,15.7,30.05,WNW,285,5.0,8.0,56,0.00,,---,0.00,VWS V14.01,2013-02-03 22:39:00,
2013-02-03 16:43:00,29.4,15.7,30.04,WNW,293,5.0,8.0,56,0.00,,---,0.00,VWS V14.01,2013-02-03 22:43:00,
2013-02-03 16:44:00,29.4,15.7,30.04,WNW,290,6.0,8.0,56,0.00,,---,0.00,VWS V14.01,2013-02-03 22:44:00,
2013-02-03 16:48:00,29.4,15.2,30.04,WNW,289,3.0,8.0,55,0.00,,---,0.00,VWS V14.01,2013-02-03 22:48:00,
2013-02-03 16:49:00,29.4,15.7,30.04,WNW,289,3.0,8.0,56,0.00,,---,0.00,VWS V14.01,2013-02-03 22:49:00,
2013-02-03 16:53:00,29.5,15.8,30.04,WNW,287,1.0,8.0,56,0.00,,---,0.00,VWS V14.01,2013-02-03 22:53:00,
2013-02-03 16:54:00,29.5,15.8,30.04,WNW,287,3.0,8.0,56,0.00,,---,0.00,VWS V14.01,2013-02-03 22:54:00,
2013-02-03 16:55:00,29.6,15.8,30.04,WNW,285,3.0,8.0,56,0.00,,---,0.00,VWS V14.01,2013-02-03 22:55:00,
2013-02-03 16:58:00,29.6,15.4,30.03,WNW,285,3.0,8.0,55,0.00,,---,0.00,VWS V14.01,2013-02-03 22:58:00,
2013-02-03 16:59:00,29.7,15.9,30.03,WNW,285,3.0,8.0,56,0.00,,---,0.00,VWS V14.01,2013-02-03 22:59:00,
2013-02-03 17:00:00,29.7,15.9,30.03,WNW,285,5.0,8.0,56,0.00,,---,0.00,VWS V14.01,2013-02-03 23:00:00,
2013-02-03 17:03:00,29.7,15.9,30.03,West,281,4.0,6.0,56,0.00,,---,0.00,VWS V14.01,2013-02-03 23:03:00,
2013-02-03 17:04:00,29.7,15.9,30.03,West,281,4.0,6.0,56,0.00,,---,0.00,VWS V14.01,2013-02-03 23:04:00,
2013-02-03 17:05:00,29.7,15.9,30.03,West,281,3.0,6.0,56,0.00,,---,0.00,VWS V14.01,2013-02-03 23:05:00,
2013-02-03 17:08:00,29.5,15.8,30.03,West,281,3.0,6.0,56,0.00,,---,0.00,VWS V14.01,2013-02-03 23:08:00,
2013-02-03 17:09:00,29.4,16.1,30.03,West,281,3.0,6.0,57,0.00,,---,0.00,VWS V14.01,2013-02-03 23:09:00,
2013-02-03 17:10:00,29.4,16.1,30.03,West,281,4.0,6.0,57,0.00,,---,0.00,VWS V14.01,2013-02-03 23:10:00,
2013-02-03 17:13:00,29.3,16.0,30.03,West,281,5.0,6.0,57,0.00,,---,0.00,VWS V14.01,2013-02-03 23:13:00,
2013-02-03 17:14:00,29.3,16.0,30.04,West,281,5.0,6.0,57,0.00,,---,0.00,VWS V14.01,2013-02-03 23:14:00,
2013-02-03 17:15:00,29.3,16.0,30.04,WSW,237,2.0,6.0,57,0.00,,---,0.00,VWS V14.01,2013-02-03 23:15:00,
2013-02-03 17:18:00,29.1,17.0,30.03,SSW,213,2.0,6.0,60,0.00,,---,0.00,VWS V14.01,2013-02-03 23:18:00,
2013-02-03 17:19:00,29.0,16.9,30.03,SW,217,0.0,6.0,60,0.00,,---,0.00,VWS V14.01,2013-02-03 23:19:00,
2013-02-03 17:20:00,29.0,16.9,30.03,SW,217,1.0,6.0,60,0.00,,---,0.00,VWS V14.01,2013-02-03 23:20:00,
2013-02-03 17:23:00,28.8,17.1,30.03,WSW,249,0.0,6.0,61,0.00,,---,0.00,VWS V14.01,2013-02-03 23:23:00,
2013-02-03 17:25:00,28.7,16.6,30.03,WNW,287,0.0,6.0,60,0.00,,---,0.00,VWS V14.01,2013-02-03 23:25:00,
2013-02-03 17:26:00,28.6,16.5,30.03,SW,234,1.0,6.0,60,0.00,,---,0.00,VWS V14.01,2013-02-03 23:26:00,
2013-02-03 17:28:00,28.4,16.3,30.03,WSW,245,1.0,6.0,60,0.00,,---,0.00,VWS V14.01,2013-02-03 23:28:00,
2013-02-03 17:30:00,28.3,16.2,30.03,SW,217,1.0,6.0,60,0.00,,---,0.00,VWS V14.01,2013-02-03 23:30:00,
2013-02-03 17:31:00,28.3,16.2,30.03,South,184,1.0,1.0,60,0.00,,---,0.00,VWS V14.01,2013-02-03 23:31:00,
2013-02-03 17:34:00,28.0,15.9,30.03,SW,233,0.0,1.0,60,0.00,,---,0.00,VWS V14.01,2013-02-03 23:34:00,
2013-02-03 17:35:00,27.9,16.2,30.02,WSW,237,1.0,1.0,61,0.00,,---,0.00,VWS V14.01,2013-02-03 23:35:00,
2013-02-03 17:36:00,27.9,16.6,30.03,SW,229,1.0,1.0,62,0.00,,---,0.00,VWS V14.01,2013-02-03 23:36:00,
2013-02-03 17:39:00,27.6,16.7,30.02,SW,233,0.0,1.0,63,0.00,,---,0.00,VWS V14.01,2013-02-03 23:39:00,
2013-02-03 17:40:00,27.5,16.6,30.02,West,264,1.0,1.0,63,0.00,,---,0.00,VWS V14.01,2013-02-03 23:40:00,
2013-02-03 17:41:00,27.5,16.6,30.02,West,264,1.0,1.0,63,0.00,,---,0.00,VWS V14.01,2013-02-03 23:41:00,
2013-02-03 17:44:00,27.2,17.0,30.02,West,263,1.0,1.0,65,0.00,,---,0.00,VWS V14.01,2013-02-03 23:44:00,
2013-02-03 17:45:00,27.1,16.9,30.03,West,265,0.0,1.0,65,0.00,,---,0.00,VWS V14.01,2013-02-03 23:45:00,
2013-02-03 17:46:00,27.0,16.8,30.03,WSW,248,0.0,1.0,65,0.00,,---,0.00,VWS V14.01,2013-02-03 23:46:00,
2013-02-03 17:49:00,26.8,17.3,30.02,WSW,245,0.0,1.0,67,0.00,,---,0.00,VWS V14.01,2013-02-03 23:49:00,
2013-02-03 17:51:00,26.7,17.6,30.02,SW,227,0.0,1.0,68,0.00,,---,0.00,VWS V14.01,2013-02-03 23:51:00,
2013-02-03 17:54:00,26.4,17.6,30.02,SW,222,0.0,1.0,69,0.00,,---,0.00,VWS V14.01,2013-02-03 23:54:00,
2013-02-03 17:56:00,26.3,17.5,30.02,WSW,242,1.0,1.0,69,0.00,,---,0.00,VWS V14.01,2013-02-03 23:56:00,
2013-02-03 17:59:00,26.2,17.8,30.02,SW,229,0.0,1.0,70,0.00,,---,0.00,VWS V14.01,2013-02-03 23:59:00,
2013-02-03 18:01:00,26.1,17.7,30.03,SW,223,0.0,1.0,70,0.00,,---,0.00,VWS V14.01,2013-02-04 00:01:00,
2013-02-03 18:04:00,25.9,17.5,30.03,SW,223,0.0,1.0,70,0.00,,---,0.00,VWS V14.01,2013-02-04 00:04:00,
2013-02-03 18:06:00,25.8,17.4,30.03,SW,230,0.0,1.0,70,0.00,,---,0.00,VWS V14.01,2013-02-04 00:06:00,
2013-02-03 18:07:00,25.8,17.4,30.03,West,263,0.0,1.0,70,0.00,,---,0.00,VWS V14.01,2013-02-04 00:07:00,
2013-02-03 18:09:00,25.7,17.3,30.03,WSW,257,1.0,1.0,70,0.00,,---,0.00,VWS V14.01,2013-02-04 00:09:00,
2013-02-03 18:11:00,25.7,17.3,30.03,SW,233,2.0,2.0,70,0.00,,---,0.00,VWS V14.01,2013-02-04 00:11:00,
2013-02-03 18:12:00,25.7,17.6,30.03,SW,229,2.0,2.0,71,0.00,,---,0.00,VWS V14.01,2013-02-04 00:12:00,
2013-02-03 18:14:00,25.7,17.9,30.03,West,268,0.0,2.0,72,0.00,,---,0.00,VWS V14.01,2013-02-04 00:14:00,
2013-02-03 18:16:00,25.6,18.2,30.03,WSW,243,2.0,2.0,73,0.00,,---,0.00,VWS V14.01,2013-02-04 00:16:00,
2013-02-03 18:17:00,25.6,18.2,30.03,SW,220,2.0,2.0,73,0.00,,---,0.00,VWS V14.01,2013-02-04 00:17:00,
2013-02-03 18:19:00,25.5,18.1,30.02,SW,233,2.0,2.0,73,0.00,,---,0.00,VWS V14.01,2013-02-04 00:19:00,
2013-02-03 18:21:00,25.5,18.1,30.02,SW,230,1.0,2.0,73,0.00,,---,0.00,VWS V14.01,2013-02-04 00:21:00,
2013-02-03 18:22:00,25.6,18.2,30.02,SW,227,2.0,2.0,73,0.00,,---,0.00,VWS V14.01,2013-02-04 00:22:00,
2013-02-03 18:24:00,25.6,18.2,30.02,SW,223,2.0,3.0,73,0.00,,---,0.00,VWS V14.01,2013-02-04 00:24:00,
2013-02-03 18:27:00,25.7,18.6,30.02,SW,229,2.0,3.0,74,0.00,,---,0.00,VWS V14.01,2013-02-04 00:27:00,
2013-02-03 18:29:00,25.7,18.6,30.02,SSW,199,2.0,3.0,74,0.00,,---,0.00,VWS V14.01,2013-02-04 00:29:00,
2013-02-03 18:32:00,25.6,18.5,30.02,SW,222,2.0,3.0,74,0.00,,---,0.00,VWS V14.01,2013-02-04 00:32:00,
2013-02-03 18:33:00,25.5,18.4,30.02,South,178,2.0,3.0,74,0.00,,---,0.00,VWS V14.01,2013-02-04 00:33:00,
2013-02-03 18:35:00,25.3,18.5,30.02,SSW,196,1.0,3.0,75,0.00,,---,0.00,VWS V14.01,2013-02-04 00:35:00,
2013-02-03 18:37:00,25.2,18.4,30.02,WSW,238,2.0,3.0,75,0.00,,---,0.00,VWS V14.01,2013-02-04 00:37:00,
2013-02-03 18:38:00,25.2,18.4,30.02,SW,230,3.0,3.0,75,0.00,,---,0.00,VWS V14.01,2013-02-04 00:38:00,
2013-02-03 18:40:00,25.0,18.5,30.02,SW,222,2.0,4.0,76,0.00,,---,0.00,VWS V14.01,2013-02-04 00:40:00,
2013-02-03 18:42:00,24.9,18.7,30.02,SW,223,3.0,4.0,77,0.00,,---,0.00,VWS V14.01,2013-02-04 00:42:00,
2013-02-03 18:43:00,24.9,18.7,30.02,SW,235,3.0,4.0,77,0.00,,---,0.00,VWS V14.01,2013-02-04 00:43:00,
2013-02-03 18:45:00,24.8,18.9,30.02,SW,221,2.0,4.0,78,0.00,,---,0.00,VWS V14.01,2013-02-04 00:45:00,
2013-02-03 18:47:00,24.8,18.9,30.02,SW,217,2.0,4.0,78,0.00,,---,0.00,VWS V14.01,2013-02-04 00:47:00,
2013-02-03 18:48:00,24.8,18.9,30.02,SW,222,3.0,4.0,78,0.00,,---,0.00,VWS V14.01,2013-02-04 00:48:00,
2013-02-03 18:50:00,24.8,18.9,30.02,SW,233,2.0,4.0,78,0.00,,---,0.00,VWS V14.01,2013-02-04 00:50:00,
2013-02-03 18:52:00,24.8,18.9,30.03,SW,230,2.0,4.0,78,0.00,,---,0.00,VWS V14.01,2013-02-04 00:52:00,
2013-02-03 18:53:00,24.8,18.9,30.03,SSW,209,2.0,4.0,78,0.00,,---,0.00,VWS V14.01,2013-02-04 00:53:00,
2013-02-03 18:55:00,24.9,18.7,30.03,SW,233,3.0,4.0,77,0.00,,---,0.00,VWS V14.01,2013-02-04 00:55:00,
2013-02-03 18:57:00,25.1,18.9,30.03,SW,233,3.0,4.0,77,0.00,,---,0.00,VWS V14.01,2013-02-04 00:57:00,
2013-02-03 18:58:00,25.1,18.9,30.03,SW,236,3.0,4.0,77,0.00,,---,0.00,VWS V14.01,2013-02-04 00:58:00,
2013-02-03 19:01:00,25.2,19.3,30.03,SW,219,2.0,3.0,78,0.00,,---,0.00,VWS V14.01,2013-02-04 01:01:00,
2013-02-03 19:03:00,25.2,19.3,30.03,SSW,211,1.0,3.0,78,0.00,,---,0.00,VWS V14.01,2013-02-04 01:03:00,
2013-02-03 19:06:00,25.0,19.1,30.03,SSW,205,2.0,3.0,78,0.00,,---,0.00,VWS V14.01,2013-02-04 01:06:00,
2013-02-03 19:08:00,24.9,19.3,30.03,South,187,2.0,4.0,79,0.00,,---,0.00,VWS V14.01,2013-02-04 01:08:00,
2013-02-03 19:11:00,24.7,19.4,30.03,SW,217,3.0,4.0,80,0.00,,---,0.00,VWS V14.01,2013-02-04 01:11:00,
2013-02-03 19:13:00,24.6,19.3,30.03,SSW,192,3.0,4.0,80,0.00,,---,0.00,VWS V14.01,2013-02-04 01:13:00,
2013-02-03 19:16:00,24.4,19.4,30.03,SW,222,3.0,4.0,81,0.00,,---,0.00,VWS V14.01,2013-02-04 01:16:00,
2013-02-03 19:18:00,24.3,19.3,30.03,WSW,243,2.0,4.0,81,0.00,,---,0.00,VWS V14.01,2013-02-04 01:18:00,
2013-02-03 19:21:00,24.3,19.3,30.03,West,263,2.0,4.0,81,0.00,,---,0.00,VWS V14.01,2013-02-04 01:21:00,
2013-02-03 19:23:00,26.5,16.3,30.03,West,276,2.0,4.0,65,0.00,,---,0.00,VWS V14.01,2013-02-04 01:23:00,
2013-02-03 19:26:00,26.6,16.4,30.03,West,276,3.0,4.0,65,0.00,,---,0.00,VWS V14.01,2013-02-04 01:26:00,
2013-02-03 19:28:00,26.7,16.5,30.03,West,275,3.0,5.0,65,0.00,,---,0.00,VWS V14.01,2013-02-04 01:28:00,
2013-02-03 19:32:00,26.7,16.5,30.03,West,275,3.0,3.0,65,0.00,,---,0.00,VWS V14.01,2013-02-04 01:32:00,
2013-02-03 19:33:00,26.6,16.4,30.03,West,274,2.0,5.0,65,0.00,,---,0.00,VWS V14.01,2013-02-04 01:33:00,
2013-02-03 19:34:00,26.6,16.4,30.03,West,274,1.0,5.0,65,0.00,,---,0.00,VWS V14.01,2013-02-04 01:34:00,
2013-02-03 19:37:00,26.5,16.7,30.03,West,274,3.0,5.0,66,0.00,,---,0.00,VWS V14.01,2013-02-04 01:37:00,
2013-02-03 19:38:00,26.5,16.7,30.03,West,274,2.0,5.0,66,0.00,,---,0.00,VWS V14.01,2013-02-04 01:38:00,
2013-02-03 19:39:00,26.5,16.7,30.03,West,274,2.0,5.0,66,0.00,,---,0.00,VWS V14.01,2013-02-04 01:39:00,
2013-02-03 19:43:00,26.4,16.6,30.02,West,274,3.0,5.0,66,0.00,,---,0.00,VWS V14.01,2013-02-04 01:43:00,
2013-02-03 19:44:00,26.3,16.5,30.02,West,274,4.0,5.0,66,0.00,,---,0.00,VWS V14.01,2013-02-04 01:44:00,
2013-02-03 19:48:00,26.1,16.7,30.03,West,273,5.0,5.0,67,0.00,,---,0.00,VWS V14.01,2013-02-04 01:48:00,
2013-02-03 19:49:00,26.0,16.6,30.03,West,273,1.0,5.0,67,0.00,,---,0.00,VWS V14.01,2013-02-04 01:49:00,
2013-02-03 19:53:00,26.0,16.9,30.03,West,273,2.0,5.0,68,0.00,,---,0.00,VWS V14.01,2013-02-04 01:53:00,
2013-02-03 19:54:00,26.0,16.9,30.03,West,273,2.0,5.0,68,0.00,,---,0.00,VWS V14.01,2013-02-04 01:54:00,
2013-02-03 19:58:00,25.9,17.1,30.03,West,270,3.0,5.0,69,0.00,,---,0.00,VWS V14.01,2013-02-04 01:58:00,
2013-02-03 19:59:00,26.0,17.2,30.03,West,269,5.0,5.0,69,0.00,,---,0.00,VWS V14.01,2013-02-04 01:59:00,
2013-02-03 20:03:00,26.0,17.2,30.03,West,268,0.0,4.0,69,0.00,,---,0.00,VWS V14.01,2013-02-04 02:03:00,
2013-02-03 20:04:00,26.0,17.2,30.03,West,268,2.0,4.0,69,0.00,,---,0.00,VWS V14.01,2013-02-04 02:04:00,
2013-02-03 20:08:00,25.9,17.1,30.02,SW,233,4.0,7.0,69,0.00,,---,0.00,VWS V14.01,2013-02-04 02:08:00,
2013-02-03 20:09:00,26.0,17.2,30.02,SW,233,2.0,7.0,69,0.00,,---,0.00,VWS V14.01,2013-02-04 02:09:00,
2013-02-03 20:10:00,26.0,17.2,30.02,SW,233,2.0,7.0,69,0.00,,---,0.00,VWS V14.01,2013-02-04 02:10:00,
2013-02-03 20:13:00,26.1,17.3,30.03,SW,217,3.0,7.0,69,0.00,,---,0.00,VWS V14.01,2013-02-04 02:13:00,
2013-02-03 20:14:00,26.1,17.3,30.03,SW,217,5.0,7.0,69,0.00,,---,0.00,VWS V14.01,2013-02-04 02:14:00,
2013-02-03 20:15:00,26.1,17.3,30.02,SW,217,5.0,7.0,69,0.00,,---,0.00,VWS V14.01,2013-02-04 02:15:00,
2013-02-03 20:19:00,26.2,17.1,30.02,SSW,209,6.0,9.0,68,0.00,,---,0.00,VWS V14.01,2013-02-04 02:19:00,
2013-02-03 20:20:00,26.2,17.1,30.02,SSW,209,4.0,9.0,68,0.00,,---,0.00,VWS V14.01,2013-02-04 02:20:00,
2013-02-03 20:24:00,26.3,16.9,30.02,SSW,207,3.0,9.0,67,0.00,,---,0.00,VWS V14.01,2013-02-04 02:24:00,
2013-02-03 20:25:00,26.3,16.9,30.02,SSW,207,3.0,9.0,67,0.00,,---,0.00,VWS V14.01,2013-02-04 02:25:00,
2013-02-03 20:29:00,26.2,16.8,30.02,SSW,202,3.0,9.0,67,0.00,,---,0.00,VWS V14.01,2013-02-04 02:29:00,
2013-02-03 20:30:00,26.2,17.1,30.02,SSW,200,6.0,9.0,68,0.00,,---,0.00,VWS V14.01,2013-02-04 02:30:00,
2013-02-03 20:34:00,26.1,17.0,30.01,SSW,194,2.0,6.0,68,0.00,,---,0.00,VWS V14.01,2013-02-04 02:34:00,
2013-02-03 20:35:00,26.1,17.0,30.01,SSW,192,7.0,7.0,68,0.00,,---,0.00,VWS V14.01,2013-02-04 02:35:00,
2013-02-03 20:39:00,26.1,17.0,30.01,South,188,5.0,8.0,68,0.00,,---,0.00,VWS V14.01,2013-02-04 02:39:00,
2013-02-03 20:40:00,26.2,17.4,30.01,South,188,7.0,8.0,69,0.00,,---,0.00,VWS V14.01,2013-02-04 02:40:00,
2013-02-03 20:44:00,26.3,17.2,30.01,South,186,5.0,8.0,68,0.00,,---,0.00,VWS V14.01,2013-02-04 02:44:00,
2013-02-03 20:45:00,26.3,17.2,30.01,South,186,4.0,8.0,68,0.00,,---,0.00,VWS V14.01,2013-02-04 02:45:00,
2013-02-03 20:49:00,26.3,17.5,30.01,South,187,4.0,8.0,69,0.00,,---,0.00,VWS V14.01,2013-02-04 02:49:00,
2013-02-03 20:50:00,26.3,17.5,30.01,South,186,5.0,8.0,69,0.00,,---,0.00,VWS V14.01,2013-02-04 02:50:00,
2013-02-03 20:51:00,26.3,17.5,30.01,South,187,6.0,8.0,69,0.00,,---,0.00,VWS V14.01,2013-02-04 02:51:00,
2013-02-03 20:54:00,26.3,17.5,30.01,South,186,4.0,9.0,69,0.00,,---,0.00,VWS V14.01,2013-02-04 02:54:00,
2013-02-03 20:55:00,26.3,17.5,30.01,South,186,4.0,9.0,69,0.00,,---,0.00,VWS V14.01,2013-02-04 02:55:00,
2013-02-03 20:56:00,26.3,17.5,30.01,South,186,3.0,9.0,69,0.00,,---,0.00,VWS V14.01,2013-02-04 02:56:00,
2013-02-03 21:00:00,26.2,17.8,30.01,South,184,6.0,9.0,70,0.00,,---,0.00,VWS V14.01,2013-02-04 03:00:00,
2013-02-03 21:01:00,26.2,17.8,30.01,South,184,7.0,7.0,70,0.00,,---,0.00,VWS V14.01,2013-02-04 03:01:00,
2013-02-03 21:05:00,26.3,17.9,30.01,South,185,6.0,9.0,70,0.00,,---,0.00,VWS V14.01,2013-02-04 03:05:00,
2013-02-03 21:06:00,26.3,18.2,30.01,South,185,3.0,9.0,71,0.00,,---,0.00,VWS V14.01,2013-02-04 03:06:00,
2013-02-03 21:10:00,26.4,18.3,30.01,South,183,7.0,9.0,71,0.00,,---,0.00,VWS V14.01,2013-02-04 03:10:00,
2013-02-03 21:11:00,26.4,18.3,30.01,South,183,7.0,9.0,71,0.00,,---,0.00,VWS V14.01,2013-02-04 03:11:00,
2013-02-03 21:15:00,26.5,18.0,30.01,South,185,8.0,10.0,70,0.00,,---,0.00,VWS V14.01,2013-02-04 03:15:00,
2013-02-03 21:16:00,26.6,18.1,30.01,South,184,6.0,10.0,70,0.00,,---,0.00,VWS V14.01,2013-02-04 03:16:00,
2013-02-03 21:20:00,26.5,18.0,30.01,South,186,6.0,10.0,70,0.00,,---,0.00,VWS V14.01,2013-02-04 03:20:00,
2013-02-03 21:21:00,26.5,18.0,30.01,South,186,6.0,10.0,70,0.00,,---,0.00,VWS V14.01,2013-02-04 03:21:00,
2013-02-03 21:25:00,26.3,18.2,30.01,South,186,4.0,10.0,71,0.00,,---,0.00,VWS V14.01,2013-02-04 03:25:00,
2013-02-03 21:26:00,26.3,18.2,30.01,South,186,5.0,10.0,71,0.00,,---,0.00,VWS V14.01,2013-02-04 03:26:00,
2013-02-03 21:30:00,26.3,18.2,30.01,South,186,9.0,9.0,71,0.00,,---,0.00,VWS V14.01,2013-02-04 03:30:00,
2013-02-03 21:31:00,26.3,18.2,30.01,South,186,7.0,9.0,71,0.00,,---,0.00,VWS V14.01,2013-02-04 03:31:00,
2013-02-03 21:35:00,26.2,18.1,30.00,South,184,8.0,9.0,71,0.00,,---,0.00,VWS V14.01,2013-02-04 03:35:00,
2013-02-03 21:36:00,26.2,18.1,30.00,South,184,3.0,9.0,71,0.00,,---,0.00,VWS V14.01,2013-02-04 03:36:00,
2013-02-03 21:40:00,26.2,18.1,30.00,South,179,5.0,10.0,71,0.00,,---,0.00,VWS V14.01,2013-02-04 03:40:00,
2013-02-03 21:41:00,26.2,18.1,30.00,South,178,3.0,10.0,71,0.00,,---,0.00,VWS V14.01,2013-02-04 03:41:00,
2013-02-03 21:46:00,26.2,18.1,30.00,South,178,4.0,10.0,71,0.00,,---,0.00,VWS V14.01,2013-02-04 03:46:00,
2013-02-03 21:47:00,26.1,18.0,30.00,South,178,2.0,10.0,71,0.00,,---,0.00,VWS V14.01,2013-02-04 03:47:00,
2013-02-03 21:51:00,25.8,17.7,29.99,SSE,163,4.0,10.0,71,0.00,,---,0.00,VWS V14.01,2013-02-04 03:51:00,
2013-02-03 21:52:00,25.8,18.0,29.99,SSE,162,5.0,10.0,72,0.00,,---,0.00,VWS V14.01,2013-02-04 03:52:00,
2013-02-03 21:56:00,25.7,17.9,29.99,SSE,162,0.0,10.0,72,0.00,,---,0.00,VWS V14.01,2013-02-04 03:56:00,
2013-02-03 21:57:00,25.7,17.9,29.99,SSE,162,0.0,10.0,72,0.00,,---,0.00,VWS V14.01,2013-02-04 03:57:00,
2013-02-03 22:01:00,25.5,17.8,29.99,SSE,162,0.0,0.0,72,0.00,,---,0.00,VWS V14.01,2013-02-04 04:01:00,
2013-02-03 22:02:00,25.5,17.8,29.99,SSE,162,1.0,2.0,72,0.00,,---,0.00,VWS V14.01,2013-02-04 04:02:00,
2013-02-03 22:06:00,25.2,17.8,29.99,SSE,162,0.0,2.0,73,0.00,,---,0.00,VWS V14.01,2013-02-04 04:06:00,
2013-02-03 22:07:00,25.2,17.8,29.99,SSE,162,0.0,2.0,73,0.00,,---,0.00,VWS V14.01,2013-02-04 04:07:00,
2013-02-03 22:11:00,25.0,17.9,29.99,SSE,162,0.0,2.0,74,0.00,,---,0.00,VWS V14.01,2013-02-04 04:11:00,
2013-02-03 22:12:00,25.0,17.9,29.99,SSE,162,0.0,2.0,74,0.00,,---,0.00,VWS V14.01,2013-02-04 04:12:00,
2013-02-03 22:16:00,24.8,17.7,29.98,SSE,162,0.0,2.0,74,0.00,,---,0.00,VWS V14.01,2013-02-04 04:16:00,
2013-02-03 22:17:00,24.7,17.6,29.98,SSE,162,0.0,2.0,74,0.00,,---,0.00,VWS V14.01,2013-02-04 04:17:00,
2013-02-03 22:21:00,24.5,17.7,29.98,SSE,162,0.0,2.0,75,0.00,,---,0.00,VWS V14.01,2013-02-04 04:21:00,
2013-02-03 22:22:00,24.5,17.7,29.98,SSE,162,4.0,4.0,75,0.00,,---,0.00,VWS V14.01,2013-02-04 04:22:00,
2013-02-03 22:23:00,24.5,17.7,29.98,SSE,162,3.0,4.0,75,0.00,,---,0.00,VWS V14.01,2013-02-04 04:23:00,
2013-02-03 22:26:00,24.6,17.8,29.98,SSE,162,0.0,5.0,75,0.00,,---,0.00,VWS V14.01,2013-02-04 04:26:00,
2013-02-03 22:27:00,24.5,17.7,29.98,SSE,162,1.0,5.0,75,0.00,,---,0.00,VWS V14.01,2013-02-04 04:27:00,
2013-02-03 22:31:00,24.2,17.4,29.97,SSE,162,3.0,3.0,75,0.00,,---,0.00,VWS V14.01,2013-02-04 04:31:00,
2013-02-03 22:32:00,24.2,17.4,29.97,SSE,161,2.0,3.0,75,0.00,,---,0.00,VWS V14.01,2013-02-04 04:32:00,
2013-02-03 22:33:00,24.2,17.4,29.97,SSE,162,1.0,3.0,75,0.00,,---,0.00,VWS V14.01,2013-02-04 04:33:00,
2013-02-03 22:36:00,24.3,17.8,29.97,SSE,161,0.0,4.0,76,0.00,,---,0.00,VWS V14.01,2013-02-04 04:36:00,
2013-02-03 22:37:00,24.3,17.8,29.97,SSE,161,0.0,4.0,76,0.00,,---,0.00,VWS V14.01,2013-02-04 04:37:00,
2013-02-03 22:38:00,24.4,17.9,29.97,SSE,161,0.0,4.0,76,0.00,,---,0.00,VWS V14.01,2013-02-04 04:38:00,
2013-02-03 22:41:00,24.5,17.7,29.97,SSE,161,0.0,4.0,75,0.00,,---,0.00,VWS V14.01,2013-02-04 04:41:00,
2013-02-03 22:42:00,24.6,18.1,29.97,SSE,161,0.0,4.0,76,0.00,,---,0.00,VWS V14.01,2013-02-04 04:42:00,
2013-02-03 22:43:00,24.6,18.1,29.97,SSE,161,0.0,4.0,76,0.00,,---,0.00,VWS V14.01,2013-02-04 04:43:00,
2013-02-03 22:46:00,24.8,18.0,29.96,SSE,161,0.0,4.0,75,0.00,,---,0.00,VWS V14.01,2013-02-04 04:46:00,
2013-02-03 22:47:00,24.8,18.0,29.96,SSE,161,0.0,4.0,75,0.00,,---,0.00,VWS V14.01,2013-02-04 04:47:00,
2013-02-03 22:48:00,24.9,18.1,29.97,SSE,161,3.0,4.0,75,0.00,,---,0.00,VWS V14.01,2013-02-04 04:48:00,
2013-02-03 22:51:00,25.1,18.3,29.96,SSE,161,0.0,4.0,75,0.00,,---,0.00,VWS V14.01,2013-02-04 04:51:00,
2013-02-03 22:52:00,25.1,18.3,29.96,SSE,161,0.0,4.0,75,0.00,,---,0.00,VWS V14.01,2013-02-04 04:52:00,
2013-02-03 22:53:00,25.1,18.3,29.96,SSE,161,0.0,4.0,75,0.00,,---,0.00,VWS V14.01,2013-02-04 04:53:00,
2013-02-03 22:57:00,25.2,18.1,29.96,SSE,161,0.0,4.0,74,0.00,,---,0.00,VWS V14.01,2013-02-04 04:57:00,
2013-02-03 22:58:00,25.3,18.2,29.96,SSE,161,0.0,4.0,74,0.00,,---,0.00,VWS V14.01,2013-02-04 04:58:00,
2013-02-03 23:00:00,25.3,18.2,29.96,SSE,161,0.0,4.0,74,0.00,,---,0.00,VWS V14.01,2013-02-04 05:00:00,
2013-02-03 23:01:00,25.3,18.2,29.96,SSE,161,0.0,0.0,74,0.00,,---,0.00,VWS V14.01,2013-02-04 05:01:00,
2013-02-03 23:03:00,25.3,18.2,29.96,SSE,161,0.0,0.0,74,0.00,,---,0.00,VWS V14.01,2013-02-04 05:03:00,
2013-02-03 23:05:00,25.5,18.4,29.96,SSE,161,0.0,0.0,74,0.00,,---,0.00,VWS V14.01,2013-02-04 05:05:00,
2013-02-03 23:06:00,25.6,18.5,29.96,SSE,161,0.0,0.0,74,0.00,,---,0.00,VWS V14.01,2013-02-04 05:06:00,
2013-02-03 23:08:00,25.6,18.2,29.96,SSE,161,0.0,0.0,73,0.00,,---,0.00,VWS V14.01,2013-02-04 05:08:00,
2013-02-03 23:10:00,25.6,18.2,29.95,SSE,161,0.0,4.0,73,0.00,,---,0.00,VWS V14.01,2013-02-04 05:10:00,
2013-02-03 23:11:00,25.6,18.2,29.95,SSE,161,0.0,4.0,73,0.00,,---,0.00,VWS V14.01,2013-02-04 05:11:00,
2013-02-03 23:13:00,25.5,18.4,29.95,SSE,161,3.0,4.0,74,0.00,,---,0.00,VWS V14.01,2013-02-04 05:13:00,
2013-02-03 23:15:00,25.4,18.3,29.95,SSE,161,1.0,4.0,74,0.00,,---,0.00,VWS V14.01,2013-02-04 05:15:00,
2013-02-03 23:16:00,25.3,18.5,29.95,SSE,161,1.0,4.0,75,0.00,,---,0.00,VWS V14.01,2013-02-04 05:16:00,
2013-02-03 23:18:00,25.2,18.4,29.95,SSE,161,1.0,4.0,75,0.00,,---,0.00,VWS V14.01,2013-02-04 05:18:00,
2013-02-03 23:20:00,25.1,18.3,29.95,SSE,161,3.0,4.0,75,0.00,,---,0.00,VWS V14.01,2013-02-04 05:20:00,
2013-02-03 23:21:00,25.1,18.3,29.95,SSE,161,0.0,4.0,75,0.00,,---,0.00,VWS V14.01,2013-02-04 05:21:00,
2013-02-03 23:22:00,25.1,18.3,29.95,SSE,161,0.0,4.0,75,0.00,,---,0.00,VWS V14.01,2013-02-04 05:22:00,
2013-02-03 23:23:00,25.1,18.6,29.95,SSE,161,0.0,4.0,76,0.00,,---,0.00,VWS V14.01,2013-02-04 05:23:00,
2013-02-03 23:25:00,25.1,18.6,29.94,SSE,161,0.0,4.0,76,0.00,,---,0.00,VWS V14.01,2013-02-04 05:25:00,
2013-02-03 23:26:00,25.1,18.6,29.94,SSE,161,0.0,4.0,76,0.00,,---,0.00,VWS V14.01,2013-02-04 05:26:00,
2013-02-03 23:27:00,25.1,18.6,29.95,SSE,161,0.0,4.0,76,0.00,,---,0.00,VWS V14.01,2013-02-04 05:27:00,
2013-02-03 23:28:00,25.0,18.5,29.95,SSE,161,0.0,4.0,76,0.00,,---,0.00,VWS V14.01,2013-02-04 05:28:00,
2013-02-03 23:31:00,25.0,18.5,29.95,SSE,161,2.0,2.0,76,0.00,,---,0.00,VWS V14.01,2013-02-04 05:31:00,
2013-02-03 23:33:00,25.0,18.5,29.95,SSE,161,0.0,2.0,76,0.00,,---,0.00,VWS V14.01,2013-02-04 05:33:00,
2013-02-03 23:36:00,25.0,18.5,29.94,SSE,161,0.0,2.0,76,0.00,,---,0.00,VWS V14.01,2013-02-04 05:36:00,
2013-02-03 23:37:00,24.9,18.4,29.94,SSE,161,0.0,2.0,76,0.00,,---,0.00,VWS V14.01,2013-02-04 05:37:00,
2013-02-03 23:38:00,25.0,18.5,29.94,SSE,161,0.0,2.0,76,0.00,,---,0.00,VWS V14.01,2013-02-04 05:38:00,
2013-02-03 23:41:00,25.1,18.6,29.94,SSE,161,3.0,5.0,76,0.00,,---,0.00,VWS V14.01,2013-02-04 05:41:00,
2013-02-03 23:42:00,25.1,18.6,29.94,SSE,161,2.0,5.0,76,0.00,,---,0.00,VWS V14.01,2013-02-04 05:42:00,
2013-02-03 23:43:00,25.2,18.7,29.94,SSE,161,2.0,5.0,76,0.00,,---,0.00,VWS V14.01,2013-02-04 05:43:00,
2013-02-03 23:46:00,25.3,18.5,29.94,SSE,161,3.0,5.0,75,0.00,,---,0.00,VWS V14.01,2013-02-04 05:46:00,
2013-02-03 23:47:00,25.3,18.5,29.94,SSE,161,5.0,6.0,75,0.00,,---,0.00,VWS V14.01,2013-02-04 05:47:00,
2013-02-03 23:48:00,25.4,18.6,29.94,SSE,160,5.0,6.0,75,0.00,,---,0.00,VWS V14.01,2013-02-04 05:48:00,
2013-02-03 23:51:00,25.5,18.7,29.94,SSE,158,7.0,7.0,75,0.00,,---,0.00,VWS V14.01,2013-02-04 05:51:00,
2013-02-03 23:52:00,25.6,18.8,29.94,SSE,157,6.0,7.0,75,0.00,,---,0.00,VWS V14.01,2013-02-04 05:52:00,
2013-02-03 23:54:00,25.7,18.6,29.94,SSE,157,7.0,7.0,74,0.00,,---,0.00,VWS V14.01,2013-02-04 05:54:00,
2013-02-03 23:56:00,25.7,18.9,29.94,SSE,157,6.0,9.0,75,0.00,,---,0.00,VWS V14.01,2013-02-04 05:56:00,
2013-02-03 23:57:00,25.8,18.7,29.94,SSE,156,6.0,9.0,74,0.00,,---,0.00,VWS V14.01,2013-02-04 05:57:00,
2013-02-03 23:59:00,25.8,18.7,29.94,SSE,156,5.0,9.0,74,0.00,,---,0.00,VWS V14.01,2013-02-04 05:59:00,